GFSGL_700_rhum_000.txt.gz
RH
75 78 94 92 43 19 20 20 15 25 37 57 75 81 95 90 96 97 97 96 94 92 84 88 87 79 77 82 79 65 44 29 44 42 46 50 31 28 31 35 36 38 39
97 91 42 40 36 26 16 15 34 47 60 76 93 91 99 100 96 95 96 96 97 96 93 84 78 72 53 32 25 29 22 18 19 29 50 53 31 37 27 14 11 11 11
57 52 48 30 20 12 16 40 57 56 68 87 100 100 100 96 97 97 96 96 97 89 82 75 61 45 41 33 25 19 17 14 13 16 12 14 15 19 17 18 18 14 9
63 43 20 12 17 26 52 68 69 74 99 99 99 99 97 96 93 92 89 83 70 56 46 38 30 24 21 18 17 16 15 14 14 16 15 15 23 27 30 29 32 27 24
19 12 12 25 39 57 77 80 76 73 70 64 47 34 28 29 30 30 32 34 30 26 25 25 24 22 21 21 20 18 17 15 16 24 51 40 36 57 74 68 63 67 53
9 11 24 44 65 88 91 84 68 51 29 18 22 25 26 30 29 30 29 34 42 41 37 35 35 32 26 22 21 21 20 18 21 27 28 29 32 54 68 66 65 66 62
11 16 37 59 94 93 88 60 23 12 16 22 23 26 29 32 29 38 38 37 42 47 49 49 44 38 35 33 30 29 30 27 28 43 59 69 72 76 79 79 79 76 74
23 34 65 84 100 94 68 17 15 23 25 26 25 29 42 57 56 61 61 63 63 60 60 58 58 56 54 50 44 31 38 62 80 90 92 90 89 90 90 88 88 88 87
28 67 88 100 99 68 32 16 24 24 19 23 47 63 65 61 58 57 58 58 60 60 59 58 55 54 50 39 44 73 87 89 96 95 97 98 96 99 99 99 91 93 95
43 80 89 80 73 59 17 24 24 20 30 52 68 70 61 64 70 67 65 62 60 58 54 53 51 42 42 79 98 99 93 93 95 94 98 100 100 98 99 97 95 95 96
66 95 88 76 70 22 23 26 21 34 51 64 63 64 73 77 76 69 64 62 59 56 55 51 59 82 100 100 100 100 99 95 97 100 98 100 100 100 99 99 99 98 97
99 100 85 71 29 23 27 22 31 53 64 64 71 79 83 80 76 72 62 60 59 58 72 98 100 99 99 99 100 98 99 100 100 100 100 100 100 100 100 100 100 99 98
100 97 78 31 22 27 21 29 51 64 63 73 82 82 84 89 91 92 99 100 100 100 100 99 99 99 99 100 100 100 100 99 97 99 100 100 100 99 100 99 98 97 98
97 92 47 22 26 21 25 52 67 62 69 82 83 85 91 95 95 100 100 100 100 100 100 99 99 99 98 99 99 99 99 100 100 100 100 100 100 100 100 100 99 99 98
96 77 28 29 23 22 46 62 64 65 75 80 81 90 92 91 96 100 98 99 99 99 99 99 98 98 99 100 98 97 99 99 99 97 97 97 97 97 94 98 100 100 100
93 35 32 23 22 43 61 65 58 69 72 74 85 91 92 94 100 100 99 99 99 99 99 98 98 98 98 99 100 96 97 98 97 95 93 92 89 89 89 93 98 98 99
42 29 22 23 42 53 59 63 65 75 67 69 89 89 90 95 98 99 98 99 99 98 98 98 98 98 98 100 100 99 96 92 96 98 97 92 89 90 95 96 100 100 100
28 22 30 37 39 47 62 64 68 73 67 74 84 90 94 94 96 99 99 97 97 98 98 98 98 98 97 81 83 83 83 90 89 85 90 90 88 89 92 96 97 100 100
24 30 33 34 38 54 63 66 71 72 70 69 83 88 94 94 94 95 97 98 98 98 98 98 98 94 33 15 18 28 43 65 83 86 79 78 83 83 84 90 96 97 100
30 34 36 40 46 53 66 73 76 75 74 67 78 83 86 95 97 98 98 97 98 97 98 97 97 68 1 2 4 5 3 3 20 69 88 82 76 80 83 83 84 84 86
29 39 44 47 51 57 68 78 79 79 78 73 72 80 80 88 94 96 98 98 97 97 97 96 83 14 14 33 34 33 30 29 29 21 26 80 88 84 81 82 86 90 92
26 41 47 48 50 63 66 78 81 79 81 81 75 76 81 81 90 96 97 98 99 99 99 92 48 29 37 35 30 28 26 25 25 26 28 28 28 50 81 91 92 90 92
28 39 46 46 48 62 67 77 81 81 77 83 83 80 80 84 86 94 98 97 97 99 99 99 71 48 41 35 32 30 29 27 26 24 22 22 23 23 25 25 28 39 63
29 37 45 48 47 55 70 83 90 90 84 77 82 86 85 84 88 91 96 98 98 98 99 100 97 90 69 44 37 35 34 32 30 28 25 23 22 21 20 19 18 18 19
29 34 42 46 43 48 64 77 85 84 80 72 76 84 87 89 88 91 92 96 98 98 99 100 100 98 81 54 46 44 44 44 41 38 35 32 30 28 27 26 25 24 23
28 34 39 38 39 42 47 51 55 56 54 48 51 75 86 88 93 93 94 96 97 98 99 100 100 100 98 94 83 69 58 54 51 48 44 41 38 37 36 34 33 31 29

GFSGL_700_rhum_003.txt.gz
RH
98 99 100 97 80 76 60 39 17 11 20 35 51 53 80 84 89 95 90 95 97 97 100 100 100 100 98 98 97 86 83 100 98 98 99 98 96 95 96 97 95 96 88
98 98 96 92 59 38 16 11 12 27 43 56 55 67 98 100 99 98 96 95 92 93 97 100 100 100 100 100 100 92 83 94 94 97 98 100 98 100 100 100 100 100 100
84 66 51 38 18 12 10 9 18 41 59 60 63 84 78 83 82 76 86 90 90 93 94 98 93 84 78 70 64 66 93 100 99 100 99 95 87 83 87 94 92 100 96
43 31 21 14 12 12 13 42 82 78 70 59 44 30 34 48 49 92 72 34 34 76 100 100 100 93 74 49 30 42 74 67 72 57 55 58 63 65 76 83 87 93 80
19 17 14 12 13 21 51 64 81 78 56 23 36 86 100 100 100 71 30 31 29 30 36 86 100 100 97 42 35 30 29 28 26 25 22 35 94 100 100 100 100 100 100
24 40 18 24 29 56 77 98 100 57 23 38 90 100 100 100 99 33 47 50 47 47 46 46 76 100 100 87 34 36 34 30 26 24 20 21 45 73 70 64 68 60 65
100 100 100 96 74 94 100 100 100 99 97 100 100 100 99 97 89 50 50 55 53 53 58 63 70 85 80 66 50 46 40 36 36 33 26 23 23 26 38 51 64 75 76
99 95 99 99 100 100 100 100 98 99 100 100 100 90 62 73 67 52 58 64 63 62 61 60 60 57 57 63 50 52 50 45 36 32 38 42 61 77 84 81 82 84 83
98 97 98 99 99 99 97 100 98 100 100 100 72 68 59 57 68 68 69 67 64 62 61 61 59 56 54 52 50 47 41 37 65 85 91 89 91 95 93 93 91 95 89
98 92 100 100 98 98 99 97 100 100 100 56 62 55 58 65 71 76 78 74 70 62 57 55 57 57 53 50 48 62 69 88 97 97 97 97 97 96 99 96 94 96 95
92 84 100 99 98 98 98 100 97 100 87 52 53 60 68 72 81 86 94 92 92 90 94 87 96 94 89 98 100 100 100 99 100 100 100 98 99 98 95 96 96 95 95
98 93 100 99 99 100 100 100 100 100 59 54 58 61 68 84 95 93 93 100 100 100 100 100 100 100 100 100 99 99 100 100 99 99 99 100 100 98 97 97 98 99 100
92 98 97 100 100 100 84 100 100 82 50 56 58 62 76 90 89 88 100 100 100 100 100 100 100 100 99 100 100 100 100 100 100 100 100 100 100 100 99 97 98 100 99
93 100 98 97 27 26 81 100 79 47 53 59 58 66 79 84 87 94 97 99 100 100 100 100 100 100 100 100 99 100 100 100 100 100 99 99 100 99 98 99 99 100 99
98 97 89 36 31 21 30 50 40 46 56 59 60 70 76 86 92 93 94 96 98 99 99 99 99 99 99 100 100 100 100 100 100 100 100 100 100 100 100 100 100 99 99
94 90 45 29 21 31 33 38 40 50 54 54 56 68 79 87 89 91 96 99 99 99 99 99 99 99 99 98 97 100 100 100 100 100 100 100 100 100 100 97 98 98 95
96 46 28 22 31 31 29 38 49 57 56 53 53 69 76 81 86 88 94 98 98 98 98 99 98 98 98 98 98 100 100 97 97 97 98 96 95 97 98 93 90 93 96
41 30 23 34 34 34 35 46 56 60 63 66 56 62 70 79 85 86 92 97 98 98 98 98 98 97 73 39 55 71 82 89 95 92 95 95 92 93 94 91 90 91 96
30 28 32 38 37 39 42 45 56 63 66 68 61 64 71 74 80 84 89 95 97 98 98 98 97 83 7 1 1 2 6 35 79 95 88 87 89 88 89 84 85 89 94
25 24 31 42 42 43 47 50 60 67 67 68 69 64 66 69 76 85 92 95 97 98 98 98 96 46 22 32 33 32 32 29 19 43 92 88 82 86 86 84 79 79 82
25 24 26 42 46 46 52 56 62 68 68 64 68 72 68 70 71 79 88 94 96 98 99 98 96 72 36 33 29 28 27 27 29 31 29 42 88 89 87 83 81 83 86
25 26 28 42 48 49 51 60 68 73 76 74 67 65 75 71 71 76 82 89 96 98 100 98 74 56 48 34 30 30 29 27 26 25 24 26 27 26 38 60 76 84 89
24 27 30 42 50 50 50 54 64 76 78 70 59 57 72 80 78 78 81 83 90 97 99 100 98 81 67 51 38 34 33 31 29 27 24 21 20 20 19 19 19 19 21
24 27 32 38 43 46 45 48 51 56 54 50 44 40 52 78 83 82 83 84 86 91 97 99 100 100 98 87 57 43 40 40 38 36 33 30 28 26 24 24 23 22 21
27 26 32 37 40 40 41 45 48 52 55 56 54 49 41 50 80 89 87 88 89 89 90 96 99 100 100 99 90 70 57 52 49 45 42 38 36 34 32 31 30 29 28
28 29 33 37 40 39 43 49 52 54 57 58 56 54 50 43 56 86 95 94 95 95 96 97 98 99 100 100 100 99 97 88 69 57 52 49 46 44 42 40 38 36 34

GFSGL_700_rhum_009.txt.gz
RH
46 60 58 62 48 68 57 54 41 34 34 23 15 18 26 48 52 32 20 17 24 38 64 75 83 90 94 92 95 96 97 98 98 80 77 65 63 73 94 95 98 99 97
18 18 26 34 87 78 75 56 45 54 29 21 18 36 56 58 45 37 26 39 32 34 44 46 42 42 33 27 28 52 91 90 92 94 85 88 82 72 82 92 98 96 96
35 44 61 76 85 98 92 61 98 82 70 29 23 48 57 57 58 58 56 48 45 60 70 75 74 67 51 42 32 36 46 83 88 67 73 86 86 84 76 77 87 94 97
36 45 56 63 81 89 66 90 94 96 73 51 56 52 73 51 46 51 55 57 70 78 66 60 57 57 58 57 61 54 38 67 73 89 83 80 84 84 88 69 46 83 89
29 39 62 67 88 91 96 91 97 95 51 59 90 80 74 45 60 62 71 59 56 56 61 63 64 65 69 70 71 68 66 62 50 52 76 69 50 37 36 30 27 22 35
50 58 35 81 92 88 95 98 94 61 59 100 98 73 63 62 70 92 78 57 59 62 64 65 68 70 71 70 73 72 69 77 72 84 67 50 46 39 34 31 26 26 23
59 43 64 87 85 94 89 94 92 72 78 100 74 56 62 85 97 70 58 58 62 74 78 77 78 84 82 72 65 66 72 79 88 89 78 61 51 51 47 35 32 27 28
32 30 46 63 67 72 82 96 92 76 86 72 51 31 71 81 57 55 54 63 74 81 83 89 91 93 100 91 66 60 63 73 82 87 84 63 58 51 47 41 37 33 28
37 45 54 59 53 55 80 98 98 86 76 67 19 51 59 48 49 51 56 70 82 86 93 96 98 95 95 99 97 69 61 59 62 61 57 51 48 46 43 46 45 52 40
72 76 69 54 62 66 68 83 96 87 81 30 33 51 45 47 51 48 63 78 83 88 93 99 100 100 99 92 100 99 88 84 76 68 63 59 60 65 83 95 92 88 88
68 72 61 64 74 81 85 96 100 91 52 24 40 42 53 55 49 58 72 81 85 89 93 98 100 100 100 100 100 98 97 96 96 96 94 95 99 97 97 100 98 95 92
56 58 54 66 73 80 90 100 97 57 23 31 37 51 55 51 52 64 77 83 93 96 98 99 99 100 100 100 100 100 100 100 100 100 98 99 100 100 100 99 100 100 96
54 59 61 64 69 83 91 72 27 22 25 31 45 52 50 47 52 63 78 84 98 99 98 98 99 100 100 100 100 100 100 100 100 100 100 100 100 100 100 99 99 100 96
62 60 65 68 79 77 40 24 24 26 26 37 49 52 53 50 49 57 70 82 98 99 99 99 98 98 99 100 100 100 100 100 100 100 100 100 100 100 100 100 100 100 98
63 64 72 80 58 29 22 28 27 23 27 40 52 52 57 54 50 53 67 80 92 96 98 99 99 99 99 100 100 100 100 100 100 100 100 100 100 100 100 100 97 96 91
71 73 85 68 31 22 26 31 31 29 34 46 53 49 53 56 53 50 64 83 92 98 98 98 98 99 96 62 70 99 100 100 100 100 95 97 99 100 99 97 98 96 95
74 84 88 44 25 21 26 34 30 33 37 44 54 56 50 42 54 57 67 76 87 95 98 98 99 76 25 8 6 14 62 100 100 100 100 100 97 94 98 100 99 98 100
79 86 66 32 23 21 24 36 33 30 31 43 51 61 57 42 48 68 66 68 83 91 98 98 99 89 69 46 38 39 38 40 96 100 100 100 97 95 98 100 100 98 95
87 84 46 25 22 23 25 37 36 34 33 41 49 55 49 43 45 68 72 65 68 81 92 99 100 97 73 40 35 34 34 38 39 68 100 99 99 95 90 92 90 90 90
87 74 31 24 22 24 27 36 38 34 34 39 39 43 45 45 40 46 69 70 71 72 84 96 99 99 98 94 52 37 36 34 32 35 38 80 100 98 93 92 89 89 88
86 44 25 24 23 25 29 35 36 32 36 38 40 41 46 51 51 44 42 71 79 78 78 85 96 100 99 98 95 66 40 36 32 29 28 30 33 36 63 85 92 90 89
67 33 27 26 25 25 29 32 33 33 38 38 39 42 44 46 45 43 40 47 78 86 85 83 87 96 99 100 100 99 78 48 42 38 33 28 24 23 22 22 22 22 21
50 36 35 26 25 25 29 32 31 35 40 40 42 44 43 42 38 36 35 36 49 85 91 90 91 93 97 98 100 100 99 87 61 52 46 41 36 32 30 27 26 25 23
50 45 42 29 24 26 29 32 31 34 40 43 46 46 44 45 43 40 37 36 36 47 86 95 94 95 98 100 100 100 100 100 99 93 70 56 50 45 42 38 37 36 33
64 57 48 32 22 25 29 33 32 32 38 44 48 50 48 51 55 56 52 51 47 40 48 83 98 98 99 100 100 100 100 100 100 100 100 98 80 61 56 51 48 46 43
80 74 64 47 30 24 28 34 36 38 41 46 53 56 55 55 57 57 60 64 63 54 47 58 86 99 100 100 100 100 100 100 100 100 100 100 99 96 81 63 56 53 50

GFSGL_700_rhum_015.txt.gz
RH
59 38 19 12 10 13 18 24 35 65 84 99 98 96 92 96 94 64 59 70 28 20 28 41 41 32 33 36 39 40 42 48 42 26 34 60 75 89 96 100 87 66 59
16 13 12 11 13 18 16 16 14 21 63 100 95 79 90 95 70 72 79 78 23 22 35 48 43 38 34 35 36 37 39 43 52 45 39 22 22 25 39 83 94 74 60
13 13 11 10 13 16 11 12 12 17 27 46 59 88 92 89 97 98 72 24 31 32 43 44 41 38 41 49 55 57 59 59 57 56 53 48 42 33 31 30 32 73 71
13 11 11 14 13 13 13 13 21 29 42 50 92 84 94 100 100 85 28 36 44 43 46 45 44 50 57 64 68 70 70 69 70 73 63 65 62 49 39 34 31 45 45
13 12 13 12 11 12 13 16 25 35 47 77 85 88 100 97 100 42 36 41 40 43 43 44 54 61 71 76 78 75 76 79 85 84 77 74 73 66 54 48 38 34 35
26 20 13 12 13 14 16 20 31 45 49 58 92 88 86 100 88 39 32 33 39 41 41 50 65 73 79 86 91 92 93 86 90 96 85 80 87 80 72 64 56 41 22
21 13 12 13 16 16 20 24 35 47 56 73 70 81 96 98 52 26 27 38 40 38 46 62 72 81 86 93 100 100 99 100 100 100 99 82 85 100 81 64 56 48 34
13 12 14 18 20 20 29 34 44 55 66 78 86 99 100 77 26 24 32 35 36 41 55 71 82 87 91 92 95 98 100 100 100 100 100 89 71 75 77 72 63 49 38
12 13 19 22 19 23 37 45 57 67 80 94 100 100 63 25 23 31 35 36 36 42 65 84 90 89 94 96 96 98 100 100 100 99 100 91 95 66 68 64 55 51 42
13 16 20 20 21 34 49 54 66 75 92 100 95 32 26 23 28 36 42 42 35 45 73 88 92 94 97 99 99 100 100 100 100 100 100 95 85 73 67 58 57 48 42
14 15 18 24 32 42 57 67 79 81 57 30 27 28 23 26 37 41 41 37 36 51 77 88 92 95 99 99 100 100 100 100 100 100 100 100 94 80 70 61 55 49 44
14 15 20 31 40 56 68 78 76 41 29 26 31 27 27 34 43 39 37 36 42 53 79 90 93 91 98 99 99 100 100 100 100 100 100 100 100 100 99 97 92 89 94
17 22 28 38 50 73 80 87 48 31 27 33 33 29 33 43 48 45 37 35 40 52 79 91 94 92 97 27 60 98 100 100 100 100 100 100 100 100 100 100 100 100 100
19 28 38 49 67 87 92 85 41 27 30 37 34 33 37 46 48 42 34 30 36 49 73 92 94 89 82 48 24 80 99 100 100 100 100 100 100 100 100 100 100 100 100
24 35 45 56 84 96 96 65 30 24 29 38 35 34 36 45 40 35 33 31 33 47 63 88 98 100 80 79 41 41 68 99 100 100 99 100 99 100 100 100 100 100 100
27 45 58 70 94 99 91 40 26 24 26 36 36 36 37 38 36 35 37 37 35 47 58 75 96 99 98 87 51 37 42 63 99 99 100 99 100 100 100 100 100 100 100
31 55 61 75 92 97 62 30 25 27 27 35 38 36 38 36 36 36 38 41 39 44 62 65 81 96 100 98 75 36 36 38 55 100 100 100 100 99 100 100 100 100 100
36 60 63 77 88 79 37 29 26 26 32 44 41 36 37 37 37 36 36 38 39 42 53 65 70 80 92 98 100 94 42 36 36 48 100 100 100 100 100 100 100 100 98
40 65 75 81 85 49 27 28 26 24 27 37 36 37 36 38 39 36 36 33 32 33 37 51 68 76 81 89 95 97 98 64 37 32 37 79 100 100 99 98 100 100 100
48 74 86 87 76 38 32 27 25 24 27 34 35 38 37 40 39 38 39 37 34 30 30 32 50 73 80 82 89 94 97 100 91 45 35 29 35 73 100 100 100 100 99
56 75 91 93 65 41 40 29 25 24 26 33 35 39 39 42 42 40 43 43 40 40 40 34 31 47 78 82 86 89 94 94 98 98 66 43 34 26 27 32 43 78 98
60 77 92 93 60 49 46 30 22 24 27 33 34 40 41 43 45 43 43 41 44 46 48 49 45 35 36 64 88 90 92 94 96 96 97 92 58 42 34 29 24 22 22
62 78 90 85 70 59 55 44 25 23 27 32 34 36 39 44 49 49 46 46 50 54 53 54 56 52 36 34 53 88 91 92 95 98 100 99 99 91 56 44 38 34 31
62 80 84 82 78 72 70 65 45 26 24 30 35 36 39 45 50 54 55 55 57 62 59 59 61 62 47 34 36 56 90 90 93 95 97 99 99 99 99 91 57 49 45
58 73 87 89 85 85 87 90 86 62 39 30 34 40 44 47 51 58 61 63 64 66 66 68 68 67 61 34 35 45 74 92 93 94 95 97 100 100 100 100 99 83 60
53 67 78 86 96 98 98 99 100 98 93 73 45 38 43 50 54 58 64 68 71 74 74 76 76 73 70 37 34 45 67 90 94 95 96 97 99 99 100 100 100 100 99

GFSGL_700_rhum_018.txt.gz
RH
62 26 18 14 13 10 8 7 7 7 8 11 18 28 39 43 92 89 83 89 100 79 25 21 20 25 32 34 35 38 42 53 55 43 43 33 28 30 25 32 83 96 91
27 22 19 16 12 10 8 7 7 8 9 14 22 29 43 70 91 96 97 98 89 27 24 22 28 34 34 34 40 46 55 64 70 68 56 52 48 41 42 37 30 33 53
28 23 20 16 11 9 8 8 9 10 13 21 28 42 73 88 99 100 96 86 45 23 25 30 34 35 34 43 52 62 72 74 78 80 65 66 60 59 55 50 44 40 27
24 18 15 12 9 8 8 9 10 12 17 25 38 47 72 88 95 100 87 60 24 28 37 42 39 37 43 57 67 73 79 83 86 87 80 74 73 72 69 63 59 54 42
16 15 12 10 9 9 9 10 14 17 24 34 46 56 93 86 100 89 79 35 27 32 41 38 32 40 61 73 83 86 92 97 100 99 99 91 88 87 83 98 97 69 52
15 14 11 10 9 10 11 14 15 24 33 45 58 71 72 92 92 90 58 24 28 37 36 30 30 55 74 84 88 91 94 99 100 100 100 100 99 98 100 96 95 88 63
15 12 10 10 10 12 15 15 17 35 42 52 64 79 92 93 94 62 23 24 34 36 31 26 42 68 84 86 92 94 96 100 100 100 100 100 95 100 100 100 100 92 76
13 10 10 10 11 12 14 23 27 47 55 66 76 91 96 99 43 22 21 29 31 28 27 29 58 81 88 90 91 92 98 100 100 100 100 100 99 100 100 89 94 93 81
11 10 11 12 12 13 20 30 36 54 66 80 82 83 66 28 23 22 30 32 29 28 30 42 70 87 92 95 94 94 99 100 100 100 100 99 100 98 99 91 78 83 68
11 11 12 14 14 17 26 36 49 64 78 74 40 27 26 26 23 28 36 34 33 29 35 46 78 91 94 97 97 99 98 100 100 100 100 100 100 97 95 89 85 87 67
11 13 15 17 17 26 36 51 68 78 83 42 27 28 32 26 26 35 38 38 33 30 35 46 78 93 91 88 24 68 100 98 99 100 100 100 100 100 98 86 78 68 62
14 16 19 21 23 34 43 61 79 89 74 34 28 34 34 27 28 36 38 36 34 33 36 48 76 93 82 69 35 37 98 100 100 100 99 100 100 100 100 100 95 85 79
16 19 23 24 31 46 52 71 89 94 56 28 28 37 36 30 30 36 35 34 36 34 38 47 73 93 89 81 64 39 63 100 100 100 100 100 100 100 100 100 100 100 100
20 24 26 27 40 51 60 81 92 84 34 24 27 40 37 32 35 36 35 36 38 38 38 49 62 87 94 95 80 40 42 91 100 100 100 100 100 100 100 100 100 100 100
26 28 29 32 46 53 66 85 92 59 28 24 28 38 36 33 37 35 36 34 37 39 37 48 60 79 97 100 90 42 37 48 99 100 100 100 100 100 100 100 100 100 100
32 33 34 36 55 63 73 88 84 39 26 24 28 37 36 34 34 35 35 33 34 35 35 38 58 64 79 92 100 94 43 37 57 99 100 100 100 99 99 100 100 100 100
40 40 41 41 64 76 82 88 56 30 26 24 28 36 35 34 34 36 34 33 32 29 30 32 41 60 67 78 90 96 98 48 35 45 98 99 99 100 98 97 99 99 99
45 49 45 46 75 88 88 74 35 27 26 28 29 36 34 34 34 38 35 34 35 33 31 29 29 37 62 71 78 88 95 100 61 37 34 87 100 100 100 98 95 97 99
48 50 50 56 77 96 94 58 36 33 28 27 33 39 36 37 36 40 36 34 36 34 35 37 35 30 30 58 74 77 83 89 98 88 45 32 39 95 100 100 100 98 94
52 54 56 61 79 100 96 51 42 38 27 27 30 35 35 38 38 41 40 35 36 38 39 40 41 42 35 30 46 76 81 86 91 96 98 60 40 29 36 87 99 97 93
52 54 61 62 81 99 92 58 51 41 24 26 29 34 36 40 41 42 44 39 37 43 46 44 46 46 45 36 30 35 71 81 84 89 92 99 89 49 37 27 26 30 64
54 57 60 63 82 94 85 67 61 55 37 24 27 33 34 36 40 41 47 48 44 45 49 50 53 54 52 48 33 29 34 73 86 84 88 90 97 99 79 48 36 30 25
59 59 55 60 82 85 81 78 73 72 69 46 26 28 34 34 36 40 46 51 53 52 54 53 58 61 58 56 42 27 28 40 84 89 88 91 94 96 98 98 74 48 41
61 58 53 58 74 86 88 85 85 86 91 92 74 40 32 36 39 42 46 51 56 60 62 61 62 68 67 62 54 30 27 34 61 91 91 90 92 96 98 99 100 98 73
69 62 56 55 66 80 90 97 99 99 98 98 99 98 86 54 40 42 48 52 55 62 68 71 72 76 74 70 64 37 29 34 52 82 94 92 93 96 98 99 100 100 100
80 64 59 57 59 70 82 94 100 100 100 100 99 99 99 99 98 85 54 52 58 63 70 77 82 84 81 76 71 47 32 36 50 74 93 94 93 94 96 98 99 100 100

GFSGL_700_rhum_021.txt.gz
RH
100 81 40 40 31 21 13 9 7 6 7 7 8 10 18 28 37 64 78 90 96 99 92 71 20 19 24 31 34 34 37 45 49 37 51 53 51 52 50 50 38 27 23
87 45 49 30 21 13 10 8 7 7 8 7 8 14 22 32 44 68 79 99 100 100 84 31 19 24 32 33 32 34 46 62 73 63 63 64 63 61 58 57 55 43 32
57 51 29 21 14 11 9 8 7 8 8 8 11 21 29 59 68 82 91 94 100 87 45 20 23 31 33 30 32 49 66 77 85 84 69 80 81 76 67 69 66 59 48
54 28 20 15 12 10 9 8 9 9 10 14 21 32 41 53 90 99 93 100 91 60 22 27 34 35 31 31 53 69 81 83 88 90 80 83 92 92 88 93 83 89 74
27 19 16 13 11 10 9 9 10 11 16 20 30 42 55 73 86 90 99 94 48 24 26 33 32 27 28 53 73 83 86 90 93 95 89 91 89 97 100 100 100 86 100
20 17 14 12 11 10 10 11 12 14 21 27 38 51 63 78 90 96 92 39 23 25 30 29 24 23 37 68 85 87 93 97 96 97 96 100 100 100 100 100 100 100 100
16 15 14 13 11 10 11 13 14 19 27 34 47 62 74 82 86 69 28 22 24 33 30 28 23 24 49 76 86 89 96 99 100 100 100 98 100 99 100 100 100 100 95
16 14 14 12 10 11 14 16 18 26 34 43 58 73 55 36 27 27 22 23 31 34 32 26 24 30 65 86 84 88 90 96 100 100 100 100 100 100 100 100 100 100 100
15 14 13 11 11 13 19 19 23 32 42 57 71 65 34 26 27 23 23 29 35 34 28 27 29 40 74 89 85 42 17 85 100 100 100 98 100 100 100 100 100 100 87
14 14 11 11 14 19 22 22 31 40 52 67 80 54 27 26 28 25 26 32 32 29 29 30 35 51 85 86 74 45 34 79 95 98 98 99 100 100 100 96 98 99 100
14 11 10 13 18 22 24 27 40 50 64 78 84 44 26 28 31 27 29 32 30 30 32 34 38 54 87 90 82 63 40 68 96 99 96 97 100 100 100 100 100 93 88
10 9 10 16 23 25 27 35 45 56 72 83 67 30 24 28 31 28 32 32 32 32 36 37 40 51 82 90 89 70 39 55 97 99 97 98 100 100 100 100 100 97 82
8 10 15 23 27 29 32 41 47 60 77 82 45 24 24 30 31 29 31 33 33 35 36 38 37 51 70 87 90 65 37 42 97 99 100 99 100 100 100 100 100 100 100
13 20 24 28 32 35 35 46 54 68 83 72 33 24 25 32 31 30 32 34 34 32 32 34 35 47 60 80 92 95 54 37 73 99 100 99 100 100 100 100 100 100 100
21 23 26 31 41 40 36 52 64 76 81 46 29 24 25 34 31 32 34 34 32 30 28 28 32 46 66 77 88 97 97 47 39 98 100 99 100 100 100 100 100 100 100
26 27 31 36 44 43 40 62 72 78 63 32 28 26 27 33 32 33 36 35 32 33 31 30 28 30 46 66 75 86 98 99 45 42 100 100 99 100 100 100 100 100 100
32 32 33 44 47 45 46 68 81 80 49 33 29 26 27 34 32 33 37 36 32 33 30 31 34 33 30 40 64 73 82 93 99 49 35 94 100 100 100 100 100 100 100
34 36 38 48 51 50 54 70 89 82 46 40 30 27 27 31 32 35 37 39 32 31 33 34 36 38 37 31 31 56 74 82 91 100 73 35 47 98 99 100 100 100 98
37 43 47 50 52 53 58 72 94 77 50 46 30 26 26 32 33 36 37 41 36 33 36 37 37 38 41 40 30 28 39 66 76 86 97 94 47 32 55 99 100 100 100
36 52 55 51 51 54 62 78 95 72 55 51 30 25 26 31 35 36 38 41 43 37 38 39 40 42 43 44 40 29 25 31 63 75 83 92 99 70 40 29 38 86 100
40 54 56 50 53 54 61 81 92 73 63 62 48 27 24 27 34 34 36 38 46 47 44 45 44 47 50 50 48 37 26 23 29 60 76 82 89 99 96 56 38 28 26
43 57 62 55 53 53 59 80 84 78 75 73 76 66 39 26 30 34 34 36 42 50 52 53 51 51 54 57 54 48 32 24 24 32 67 78 81 86 97 100 88 50 38
52 59 72 66 60 57 56 71 86 88 86 85 89 95 97 77 42 32 36 39 42 47 53 59 62 61 63 64 61 56 41 27 26 29 50 78 80 81 86 94 98 99 77
62 64 73 80 70 62 60 67 79 91 98 100 100 100 100 100 97 85 51 42 43 47 51 56 64 69 72 72 69 62 53 32 28 32 40 70 82 82 83 86 92 98 99
73 67 82 88 74 65 65 70 76 80 82 92 100 100 99 99 98 100 99 96 89 59 52 57 62 71 79 82 78 70 61 44 31 32 43 58 81 84 85 87 89 92 96
80 73 93 96 89 69 58 52 46 40 34 32 36 48 83 100 100 100 99 100 98 97 84 61 64 71 82 90 92 83 70 58 38 34 40 57 74 86 87 88 90 92 94

GFSGL_700_rhum_024.txt.gz
RH
99 98 90 81 55 33 23 14 12 10 8 7 7 7 8 10 14 27 59 74 75 78 98 100 99 97 87 49 61 80 100 100 100 26 71 91 82 72 67 60 56 54 57
98 98 87 60 35 24 15 13 12 9 8 8 8 9 10 13 26 61 72 79 85 97 94 99 94 71 21 27 32 34 42 61 66 59 67 71 72 69 67 67 65 66 90
100 94 64 34 24 15 14 13 11 9 8 10 10 12 15 20 34 54 97 94 100 100 100 93 56 22 27 30 27 27 38 59 77 80 72 79 79 77 72 86 96 100 92
95 74 36 24 16 15 14 13 10 9 9 12 13 15 23 30 49 59 75 94 99 96 79 29 23 29 27 26 25 33 61 79 86 89 86 86 91 100 100 100 100 100 100
83 58 28 18 16 15 14 12 9 10 12 13 15 22 32 43 56 69 86 91 89 61 25 24 29 28 28 25 27 53 79 87 90 92 91 99 100 100 100 100 100 100 100
76 44 19 16 15 15 13 10 10 12 14 15 22 31 43 49 61 59 59 44 27 24 24 30 32 28 24 24 36 76 90 88 87 92 96 100 100 100 100 100 100 100 96
66 21 16 16 15 14 11 10 10 13 17 20 29 37 49 60 53 28 24 26 23 23 28 31 28 26 24 28 56 85 83 44 19 60 97 100 100 100 100 100 100 98 99
27 18 18 15 15 12 9 10 13 17 20 28 40 45 63 66 42 23 27 25 22 26 30 28 27 28 28 40 75 81 67 44 41 87 100 99 100 100 100 100 100 100 98
20 19 15 15 12 8 9 12 17 21 24 35 47 59 77 68 31 24 29 23 23 30 29 28 29 32 32 50 82 84 81 52 42 94 97 90 91 99 100 98 97 100 100
45 21 17 13 8 8 11 16 23 25 28 40 52 73 78 53 25 25 28 23 27 28 28 28 29 33 37 59 84 89 85 49 41 92 96 91 95 100 100 100 99 92 100
20 34 16 8 9 12 17 24 27 29 35 45 60 77 71 33 22 26 28 26 28 29 28 28 31 35 41 57 85 90 71 40 40 93 96 94 99 100 100 100 100 100 90
56 16 8 9 13 17 22 29 31 32 42 53 71 82 53 25 21 25 29 29 30 29 27 27 29 33 39 53 72 90 90 48 38 94 98 98 100 100 100 100 100 100 100
17 9 9 13 19 21 24 33 36 37 52 62 79 73 37 23 20 25 29 30 32 28 28 27 26 29 34 46 57 78 89 84 37 90 100 99 99 100 99 100 100 100 100
9 10 14 23 26 24 27 35 39 43 63 70 80 51 30 24 22 29 30 30 32 28 29 29 28 27 27 37 55 67 80 92 60 51 100 100 100 99 99 100 100 100 99
12 15 24 30 26 25 34 42 43 48 72 80 70 40 30 25 24 32 32 32 34 28 29 29 29 31 30 31 48 63 72 84 94 45 73 99 100 100 99 99 100 100 100
15 22 29 29 29 31 40 46 46 54 76 83 60 44 35 27 25 32 32 33 36 29 28 29 31 32 34 32 30 43 62 75 86 96 42 64 99 100 100 99 99 100 100
22 29 31 31 34 38 45 50 52 55 73 86 58 48 37 27 25 31 32 33 37 33 28 30 32 33 35 36 33 28 34 57 73 82 95 54 39 98 100 100 100 99 100
29 37 34 29 34 44 50 53 55 62 81 86 60 51 35 24 24 29 33 34 37 39 31 30 32 34 36 38 38 34 26 27 52 72 81 94 79 34 69 100 100 99 99
38 40 36 31 38 55 54 54 54 63 82 86 60 55 39 25 23 27 31 34 37 41 40 34 34 36 38 40 40 40 31 24 24 44 70 80 92 95 50 34 89 100 100
49 46 45 44 48 60 59 55 55 63 84 84 66 62 54 37 23 24 29 33 37 39 45 44 40 40 41 42 44 42 38 28 23 24 41 69 79 89 99 74 36 33 83
60 64 57 57 53 65 68 63 59 62 82 81 73 70 72 70 47 29 26 29 33 38 41 48 50 49 48 49 50 49 44 35 26 24 26 46 72 78 85 96 97 50 32
64 75 75 73 67 62 78 74 66 64 81 87 83 80 82 87 91 82 51 32 34 35 38 44 50 55 58 59 59 56 51 42 30 26 26 31 55 73 77 83 93 100 76
49 67 86 93 82 69 82 83 71 68 76 89 98 97 96 94 95 96 98 93 55 39 40 43 48 54 58 64 68 68 62 51 38 28 26 29 40 66 75 78 84 91 99
42 41 48 62 81 77 92 90 80 76 80 86 92 95 94 98 98 99 99 99 100 96 87 61 49 54 58 62 70 76 74 65 51 35 28 29 35 55 73 77 82 87 92
42 40 50 67 92 99 100 97 94 82 75 72 59 46 39 37 38 59 90 100 100 100 99 99 98 68 60 63 68 79 84 80 66 49 34 29 34 46 70 78 79 84 89
50 59 88 100 100 100 100 99 97 88 76 51 33 29 27 26 25 26 29 36 78 100 100 99 100 99 87 69 72 80 89 88 82 66 47 35 32 44 59 76 80 82 86

GFSGL_700_rhum_030.txt.gz
RH
65 72 78 86 97 100 100 92 71 46 30 28 28 20 10 7 7 8 9 12 13 13 21 46 99 99 97 89 85 87 66 24 24 23 24 23 20 22 39 60 64 60 57
69 75 88 96 99 99 99 96 76 30 20 27 28 14 8 7 9 11 11 13 16 21 37 68 95 96 81 90 73 22 19 25 30 25 19 20 23 46 68 66 60 61 59
71 85 98 100 100 98 98 88 46 20 26 45 22 10 8 8 12 14 17 19 24 35 50 60 60 62 57 20 16 18 24 23 22 22 21 24 55 74 60 29 47 69 80
80 95 100 100 99 100 99 84 22 28 65 24 11 8 9 12 17 20 28 27 36 46 52 40 26 19 17 15 20 24 23 23 24 24 29 60 70 52 33 49 71 81 86
92 100 100 100 99 97 93 49 22 40 22 38 8 9 15 18 19 22 29 36 52 55 42 24 20 19 18 19 24 22 22 25 24 32 63 72 69 51 44 80 91 84 82
100 100 99 99 98 100 88 33 23 37 87 15 11 16 18 20 21 28 38 53 63 54 33 21 21 21 24 22 22 21 24 26 32 62 76 76 60 38 70 92 98 96 83
100 98 100 100 97 97 83 57 42 89 34 12 14 16 21 24 27 33 44 60 64 46 23 21 20 25 25 24 24 27 28 33 48 72 77 57 38 60 92 83 78 80 83
100 100 98 96 96 96 79 63 80 30 17 17 20 21 22 26 30 39 50 68 65 35 21 22 21 26 24 23 22 22 26 34 53 80 81 50 42 86 86 84 88 84 87
98 98 97 97 97 92 79 88 48 65 23 19 20 23 30 32 34 46 59 74 58 25 22 21 23 27 24 23 22 21 24 35 52 76 83 52 64 86 87 91 93 92 90
97 96 94 95 96 93 90 93 62 20 19 21 22 34 41 38 46 56 71 79 40 22 23 24 26 26 23 22 20 21 23 33 47 67 81 49 76 83 84 97 100 98 100
99 98 96 94 95 95 87 53 30 19 21 22 21 32 42 46 50 61 73 59 29 21 22 25 29 23 21 21 22 22 22 28 43 64 78 50 78 83 86 93 93 96 99
95 96 95 95 95 79 60 43 20 22 24 24 28 36 42 48 57 65 72 36 26 22 24 27 31 24 21 20 20 23 23 25 40 53 79 58 69 86 86 90 93 93 98
96 94 94 93 85 58 46 31 21 21 24 30 34 38 42 45 63 66 62 40 29 25 27 28 32 25 23 21 21 20 22 22 23 41 64 80 52 85 88 85 90 86 99
95 93 86 75 57 46 28 21 23 25 26 29 38 41 49 52 79 86 60 44 34 25 32 31 34 27 22 23 21 20 19 21 21 22 41 67 80 52 91 88 84 84 82
56 61 56 61 46 29 24 24 27 33 34 35 49 53 55 58 88 98 56 45 36 26 27 29 33 33 24 24 25 23 22 22 22 21 23 48 71 84 49 92 90 89 85
61 60 44 34 31 32 29 24 31 39 44 43 51 59 59 62 81 96 54 48 34 26 25 28 32 36 30 26 27 29 26 24 23 22 21 24 50 72 86 47 86 92 91
35 32 31 35 40 43 42 39 30 32 48 53 51 63 64 66 94 86 55 48 30 25 25 33 33 37 38 31 30 31 31 30 28 25 22 21 26 55 73 91 47 88 97
22 25 31 41 46 52 51 41 39 32 36 55 63 67 70 68 97 90 60 55 36 25 23 29 33 36 37 40 37 36 36 38 39 33 24 23 22 30 58 75 93 46 80
30 37 41 43 38 38 32 26 25 30 42 66 77 69 77 68 90 98 64 63 54 38 27 26 31 35 36 38 45 46 46 48 48 43 34 25 23 24 39 63 76 95 53
44 52 70 84 82 68 43 34 36 68 65 50 72 77 86 84 81 100 78 70 76 76 61 40 31 32 35 36 40 46 50 55 57 54 42 32 24 24 27 45 62 74 94
42 87 92 92 90 87 83 75 82 88 79 80 59 79 93 98 99 100 99 78 80 90 97 96 78 44 39 38 39 44 48 52 58 64 62 48 32 24 25 31 48 62 72
37 38 50 86 100 100 98 91 65 50 62 90 93 100 100 100 100 99 100 99 94 92 98 99 96 100 99 72 48 44 47 51 55 62 70 67 49 31 24 25 34 52 62
24 28 35 61 88 82 94 83 94 74 69 99 100 100 100 100 100 100 99 99 99 100 100 100 100 100 100 100 100 92 59 52 54 59 68 76 70 47 31 25 27 39 55
11 16 26 37 46 99 99 100 97 74 85 100 100 100 100 100 100 100 100 100 100 97 81 68 75 92 100 100 100 100 100 97 72 61 65 76 82 70 45 31 26 30 45
12 12 13 19 44 94 100 100 83 96 89 98 100 100 100 100 100 99 99 98 84 40 34 31 29 30 34 63 100 100 100 100 99 91 71 76 87 84 68 42 32 28 34
13 15 26 61 58 59 81 82 100 100 100 96 90 99 100 100 100 100 100 99 68 36 29 24 22 22 22 29 40 97 100 100 100 99 90 85 92 95 86 65 42 34 32

GFSGL_700_rhum_033.txt.gz
RH
66 69 73 80 87 96 100 98 99 98 98 80 59 37 48 42 14 9 7 9 12 13 14 15 19 29 58 95 96 100 88 70 28 14 18 20 19 19 19 19 27 50 63
71 72 77 89 98 100 100 100 100 99 97 86 37 44 25 18 10 8 9 10 14 16 18 22 30 45 55 72 63 41 22 16 18 22 18 17 18 19 23 38 62 56 38
77 79 87 100 100 100 98 99 98 98 94 46 24 20 51 40 17 9 11 12 17 22 23 31 40 44 39 24 17 16 15 20 21 19 17 20 22 34 58 66 61 50 36
53 62 98 100 99 99 100 98 100 96 95 46 19 65 93 39 14 12 16 19 25 26 33 48 48 42 25 18 15 15 21 20 19 21 21 22 30 62 72 64 50 41 58
99 92 100 98 99 99 95 99 96 94 96 27 63 80 21 58 23 18 21 27 35 36 47 58 51 29 19 16 15 22 20 18 19 20 19 24 52 70 59 41 41 64 59
99 100 98 97 98 98 96 95 95 96 75 79 79 78 73 21 17 22 28 37 44 46 54 62 40 22 19 18 22 21 19 19 19 21 23 32 55 69 47 42 72 68 56
90 95 99 99 98 98 99 100 98 96 94 91 96 72 42 27 21 32 35 46 54 59 69 62 29 19 19 24 25 20 22 23 26 32 33 49 68 74 48 66 77 76 72
100 99 99 98 99 99 99 96 95 93 93 90 81 69 44 20 26 37 39 49 64 68 76 51 24 19 20 27 20 21 20 21 24 31 42 58 78 63 59 79 75 68 72
94 98 100 100 100 100 97 95 93 94 92 84 64 25 22 22 30 40 44 54 72 77 74 35 22 20 24 26 19 18 18 20 23 33 49 67 78 54 83 80 73 72 67
97 92 90 99 98 96 95 92 95 88 86 50 23 23 24 27 40 44 50 63 77 81 53 28 21 24 28 26 19 18 17 18 21 25 44 69 74 58 87 83 75 75 73
98 99 99 97 95 95 95 88 70 52 28 21 21 23 28 34 42 45 49 63 78 66 37 26 21 25 30 25 19 18 17 17 20 21 30 45 73 57 85 86 82 79 81
97 98 95 90 95 82 55 56 45 41 20 24 28 27 30 36 40 45 49 66 81 55 38 30 26 27 30 27 21 20 19 19 20 20 21 34 64 67 68 88 87 86 96
90 87 88 72 42 49 50 55 35 26 26 28 30 30 35 42 43 45 52 71 86 59 44 34 28 32 33 31 23 21 21 18 17 20 20 22 37 70 65 72 89 78 84
83 64 43 41 56 56 50 30 31 33 30 25 29 42 42 42 52 54 56 69 94 70 47 38 30 32 35 35 24 24 23 20 18 16 19 20 22 44 76 62 72 87 78
41 37 46 48 47 32 28 33 36 41 38 36 41 48 54 52 60 62 66 77 92 72 52 38 30 33 33 36 30 25 26 26 24 21 18 20 21 24 50 78 62 64 91
29 27 25 23 23 25 32 38 48 45 40 37 39 45 54 62 62 73 69 79 89 68 54 34 26 30 32 35 37 31 30 31 31 28 24 20 21 21 30 57 84 56 77
19 19 20 23 29 35 42 44 37 38 39 30 29 36 56 72 72 77 85 100 99 70 56 35 26 28 32 33 38 39 36 36 37 38 32 27 21 22 23 43 63 86 49
26 28 31 34 37 37 41 58 71 66 44 30 30 41 46 74 81 81 86 100 99 73 62 42 27 26 30 32 36 39 43 44 46 49 48 39 26 21 23 28 53 67 86
31 32 34 34 38 62 97 100 100 98 90 64 35 40 54 56 78 87 93 100 100 87 70 69 51 35 29 29 35 38 40 47 51 56 59 55 38 24 22 23 37 58 73
32 32 32 32 36 51 71 86 90 97 99 93 56 38 38 69 66 89 100 100 100 100 79 85 91 83 60 41 34 35 37 43 49 54 61 65 56 35 24 22 24 43 63
18 15 14 16 18 23 38 67 85 99 99 92 74 78 56 84 90 99 100 100 100 99 98 96 97 98 96 92 87 70 43 42 47 52 58 62 67 59 35 24 22 27 50
9 8 7 7 8 9 15 50 86 76 73 100 94 69 68 90 99 100 98 99 98 100 99 99 98 100 100 100 99 92 96 93 56 52 56 61 68 73 58 33 24 23 35
7 7 7 8 9 10 12 13 23 33 92 99 89 78 77 96 100 98 98 100 100 100 98 100 99 100 100 100 100 100 97 97 100 94 70 61 64 75 76 54 32 24 25
8 8 7 7 8 10 12 14 18 96 99 91 92 92 86 83 94 100 97 100 100 99 99 100 98 98 74 65 66 75 94 100 100 99 100 96 68 70 82 77 51 32 26
7 7 8 9 11 15 19 51 56 80 95 98 100 100 93 96 93 98 100 100 99 100 100 100 98 53 37 34 32 34 41 82 100 99 100 100 100 78 82 88 77 47 32
8 10 11 12 14 21 45 95 100 100 100 100 100 99 95 100 89 83 93 100 100 100 100 100 95 40 29 25 25 24 28 38 71 100 100 100 100 100 92 96 90 73 45

GFSGL_700_rhum_036.txt.gz
RH
66 70 74 77 84 96 99 98 96 99 85 98 100 98 100 92 41 39 51 58 16 17 15 15 18 19 24 30 43 64 99 95 81 46 16 13 17 18 15 16 17 17 20
74 80 79 88 98 100 98 99 93 93 100 99 100 93 89 67 32 48 56 20 28 20 19 22 25 26 32 42 44 37 25 21 20 14 15 19 15 15 18 18 21 34 56
83 77 80 76 97 97 98 73 74 98 83 97 94 98 89 55 70 74 61 83 32 28 27 29 34 38 49 49 40 25 19 20 21 22 18 15 16 18 18 24 48 64 60
80 79 76 99 98 100 86 87 84 87 98 98 98 96 80 75 89 68 92 62 70 49 37 37 42 48 58 51 30 20 18 19 23 18 17 17 17 20 27 46 59 54 40
86 73 78 94 99 84 77 98 96 96 88 97 99 99 92 94 95 95 90 65 39 34 44 48 50 58 65 42 21 19 19 24 19 17 16 15 17 24 37 62 66 47 57
84 83 100 100 100 99 96 99 91 100 99 99 98 94 95 95 90 78 38 29 37 46 57 60 62 69 65 28 21 20 25 20 17 14 15 17 20 31 45 68 57 57 54
77 83 96 100 96 79 96 86 90 100 97 95 91 92 91 76 40 25 26 34 49 54 54 60 64 73 50 23 23 23 25 20 18 17 17 21 23 37 59 65 56 70 63
84 98 100 100 99 99 98 100 100 96 94 96 92 71 52 41 24 23 26 36 46 48 51 60 68 72 36 23 24 27 22 19 18 18 20 21 29 45 70 59 64 67 65
73 79 84 85 90 100 98 96 93 93 92 67 47 48 31 20 20 21 24 34 43 49 56 68 77 53 29 24 25 28 19 18 17 18 19 22 31 52 73 60 76 71 64
80 91 99 99 98 97 95 94 88 66 46 50 40 26 17 18 23 24 29 37 52 58 59 77 67 40 27 25 26 29 18 17 17 17 20 22 29 46 74 63 75 73 68
99 99 99 98 97 96 84 77 48 46 50 45 28 20 18 19 24 30 34 39 48 56 67 86 59 42 31 27 27 30 20 18 17 16 16 18 20 27 64 68 70 82 69
91 99 98 94 82 77 73 51 48 48 45 23 23 25 24 24 24 28 35 43 53 57 73 95 60 44 35 30 30 32 22 20 18 18 16 16 18 20 31 67 65 80 83
98 92 72 77 82 72 49 36 41 41 23 22 25 27 27 24 22 25 41 47 56 63 79 99 72 48 39 30 31 34 28 26 25 22 19 18 18 19 20 32 76 62 86
74 75 75 65 52 37 35 36 25 22 22 27 31 31 27 24 23 33 45 55 68 67 79 98 91 52 41 32 34 38 33 27 28 27 25 21 18 19 20 25 45 77 58
69 54 43 31 23 21 20 20 23 27 33 37 40 39 34 27 25 30 43 63 74 83 92 96 79 55 35 31 33 40 38 30 30 30 31 28 23 20 22 22 37 68 74
28 21 20 21 23 25 26 27 33 38 44 52 67 68 57 50 32 31 42 73 77 90 91 90 87 58 35 30 32 37 39 37 34 34 38 38 32 24 22 22 27 49 80
23 24 25 26 26 26 26 29 28 28 65 90 89 91 96 86 52 47 48 75 87 97 85 95 97 63 37 26 29 36 40 41 41 42 45 49 44 35 23 22 24 44 65
22 20 19 18 19 20 22 24 29 36 64 64 99 100 100 100 68 48 52 66 79 96 94 100 99 73 52 33 29 32 38 40 44 47 50 54 56 51 33 23 22 26 50
21 20 19 17 14 12 11 11 12 15 22 33 56 88 100 100 70 59 60 79 86 96 100 100 100 93 82 67 40 32 35 41 42 46 50 54 60 63 50 27 22 22 36
20 16 12 10 9 8 7 7 8 9 10 14 39 70 100 100 86 76 56 90 94 100 100 96 100 99 97 97 86 59 38 39 43 44 49 53 56 65 68 41 25 22 27
13 10 9 7 6 6 6 7 7 8 9 11 29 100 100 99 93 66 54 83 96 99 99 97 100 99 99 99 100 99 95 84 53 46 47 51 55 60 70 64 36 23 23
10 8 7 6 6 6 5 6 6 7 8 10 12 21 44 84 97 70 77 89 89 94 99 97 100 98 100 100 100 100 99 96 96 99 76 55 55 59 64 71 59 32 24
7 7 7 7 6 6 6 7 8 10 13 18 96 99 100 97 94 94 84 85 83 83 99 100 99 100 100 99 99 100 100 98 100 100 98 100 92 72 64 70 74 52 30
8 9 8 7 8 9 10 10 12 16 22 39 97 100 100 100 100 100 95 80 76 82 92 98 100 100 100 99 100 98 83 88 98 100 100 100 100 100 90 72 77 74 46
11 10 9 10 12 14 14 16 26 62 94 100 100 100 100 100 100 100 98 94 90 84 99 100 98 97 100 100 100 83 49 46 46 68 99 100 100 100 100 95 82 82 73
12 12 14 19 24 27 26 26 39 66 99 100 100 100 100 100 100 100 100 94 88 79 86 97 100 100 100 100 100 53 33 31 31 40 62 91 100 100 100 100 97 94 85

GFSGL_700_rhum_042.txt.gz
RH
40 39 43 46 57 71 80 84 74 77 79 86 96 100 100 90 97 99 89 88 96 88 83 77 72 72 78 62 37 28 28 34 33 40 45 37 22 16 16 20 16 13 13
71 70 71 77 86 89 88 76 68 71 87 99 100 99 99 93 99 98 98 97 89 88 82 73 79 78 39 29 26 28 32 38 41 44 48 27 17 18 21 14 12 13 13
84 78 88 88 83 85 86 87 80 91 97 97 99 99 96 93 93 99 95 92 89 89 75 81 38 28 25 22 24 32 36 44 54 58 40 21 16 21 14 12 12 13 16
69 78 87 90 94 84 91 90 85 97 89 99 79 99 100 98 96 93 93 90 94 75 58 34 23 18 17 22 28 37 42 52 65 55 29 18 21 16 11 9 9 14 16
68 73 82 84 84 86 85 91 100 88 90 78 89 99 97 96 95 90 90 89 70 45 30 18 15 16 18 23 32 40 46 58 68 44 25 18 21 12 9 9 10 13 16
49 69 49 54 68 80 86 93 92 98 73 100 100 98 95 95 71 68 67 59 42 26 14 16 16 19 21 26 38 43 49 65 63 36 22 22 18 12 9 8 10 12 14
45 44 45 64 70 74 92 99 96 98 100 97 99 96 94 74 59 57 48 39 22 16 17 18 20 23 25 32 41 46 52 68 48 32 21 25 16 12 10 9 10 12 19
49 57 66 73 86 100 99 98 100 99 97 97 96 94 74 61 53 48 37 20 18 20 21 22 23 26 31 40 46 50 61 64 44 31 24 26 17 14 12 12 11 10 15
56 65 73 99 100 99 95 100 98 95 96 97 96 84 66 53 45 32 22 19 21 24 25 25 26 29 42 50 52 56 68 66 44 32 28 28 20 17 14 15 14 11 12
59 66 86 96 100 98 97 98 97 98 98 93 84 75 55 40 32 26 21 22 25 28 29 28 27 29 45 56 59 66 76 69 47 35 33 31 22 19 17 18 17 14 13
82 85 98 99 100 99 95 94 100 93 78 75 59 44 34 26 24 22 23 26 31 30 30 36 31 32 46 62 68 75 92 82 52 38 36 35 26 24 23 23 20 17 16
96 100 100 94 92 95 95 85 74 60 37 29 23 18 19 21 23 25 29 34 36 36 39 51 50 38 45 66 80 91 100 99 65 42 37 39 29 27 28 28 26 20 20
100 92 79 84 77 73 66 44 24 19 18 17 17 17 16 21 26 28 35 42 49 58 70 78 72 59 50 76 91 100 100 95 71 44 39 43 34 30 31 31 35 22 20
68 72 72 63 40 24 20 19 18 17 16 16 16 17 17 15 16 31 52 52 60 74 98 90 81 72 55 90 100 100 100 96 71 45 38 44 38 32 34 36 42 28 18
60 41 27 23 21 19 17 16 16 17 19 18 17 14 12 10 9 12 20 46 89 97 86 97 71 74 47 90 100 100 100 98 80 45 36 43 42 36 38 42 51 39 20
28 25 22 19 18 18 18 19 21 21 18 14 10 9 9 8 7 7 7 11 45 75 100 95 71 67 53 82 100 100 100 100 90 44 34 42 43 40 42 49 56 51 26
23 21 20 21 22 23 25 28 29 25 14 11 10 9 7 6 6 6 7 8 10 38 95 92 69 74 75 71 92 100 100 100 95 53 34 44 44 43 45 52 59 60 37
24 25 27 28 31 33 31 20 13 11 10 10 9 6 6 5 5 5 6 7 9 17 40 81 100 80 76 72 83 100 100 100 97 76 37 42 41 43 46 52 55 61 53
31 33 36 37 34 22 13 12 11 10 8 6 6 6 5 5 5 6 7 9 10 72 75 100 95 78 71 70 92 100 100 99 100 97 58 39 40 42 46 49 54 56 63
41 42 38 28 16 12 12 10 8 7 7 7 6 6 6 5 6 6 8 13 14 87 100 100 93 76 72 83 95 100 99 100 98 100 94 45 41 40 44 48 51 55 64
43 34 21 12 12 11 8 7 8 9 8 8 9 13 14 12 12 14 19 97 42 26 67 100 89 90 82 89 94 100 99 100 99 99 100 82 56 57 51 52 51 55 60
30 15 13 12 10 8 8 9 10 10 10 13 16 21 23 20 26 86 100 100 100 95 100 100 100 98 92 89 99 100 100 99 99 100 100 100 98 92 88 83 66 60 61
14 13 11 9 8 8 11 13 12 12 16 23 28 30 34 30 28 85 100 100 100 100 100 100 100 100 100 93 96 100 100 96 100 100 100 100 100 99 96 98 98 94 78
13 10 8 8 9 11 14 13 13 18 25 32 39 43 46 47 41 41 79 100 100 100 100 100 100 99 83 83 83 97 100 100 99 99 100 100 100 100 100 100 100 100 98
10 8 8 10 12 16 15 14 19 28 36 44 50 53 55 56 55 54 64 69 92 100 100 100 100 100 97 83 76 85 100 100 100 100 100 100 99 100 100 100 100 100 100
9 10 11 13 17 19 15 18 28 38 48 52 43 35 35 46 60 64 64 74 91 90 100 100 100 100 89 94 80 80 97 100 100 100 100 98 97 98 86 100 100 100 100

GFSGL_700_rhum_048.txt.gz
RH
69 77 52 44 40 42 46 56 57 63 74 99 99 98 99 95 97 98 96 97 98 98 99 95 94 94 82 74 56 38 20 13 16 18 58 91 35 18 26 31 36 36 25
48 32 42 49 60 70 76 80 81 88 99 98 100 100 99 89 94 96 100 97 98 97 96 96 96 93 73 76 48 24 14 17 41 20 45 58 79 31 28 34 41 35 18
48 54 56 56 59 67 74 75 90 98 99 100 99 99 99 79 94 100 87 98 97 97 96 94 93 87 83 53 30 15 17 82 45 46 44 72 64 51 33 41 43 29 18
47 48 46 49 52 56 60 69 80 92 95 97 98 97 79 97 94 98 100 98 96 96 96 94 82 77 48 32 18 17 23 26 46 91 95 78 94 89 52 46 43 27 20
44 43 52 60 67 67 78 80 83 85 71 69 82 89 99 99 99 98 95 96 96 96 89 81 66 44 34 20 20 34 64 29 33 99 82 98 100 100 100 67 43 26 21
62 44 33 33 35 39 44 47 51 52 61 74 97 90 100 100 95 92 96 96 90 62 61 54 47 37 24 22 23 26 29 33 37 42 40 57 72 96 71 56 40 26 22
27 27 30 34 38 43 46 50 56 65 72 100 98 98 95 95 96 95 88 68 57 48 45 40 34 32 25 24 26 31 36 37 37 39 42 73 68 72 75 59 39 29 24
26 30 35 40 42 44 47 53 56 59 67 92 99 96 95 90 79 62 42 28 28 31 33 33 33 28 26 28 36 41 41 43 45 41 46 62 72 81 83 56 41 32 26
35 36 35 37 41 46 52 59 59 64 72 82 84 79 72 55 30 19 19 20 20 20 24 25 24 25 30 38 48 47 50 58 64 55 53 60 74 89 85 59 43 36 28
35 36 39 44 52 52 47 47 51 56 58 59 54 43 23 17 16 16 18 18 18 19 20 21 21 22 35 46 52 64 60 68 80 77 64 79 96 97 96 74 46 39 32
41 44 52 58 52 44 43 44 43 43 36 24 18 16 14 14 15 17 19 20 21 22 20 17 13 13 14 55 76 80 75 96 97 78 100 99 98 96 92 82 47 40 34
50 55 58 50 44 42 42 38 29 22 18 15 14 15 17 20 24 27 27 23 17 12 11 10 9 13 19 27 80 73 84 97 100 93 78 100 100 99 99 92 54 44 38
58 58 52 46 43 39 31 25 19 15 15 17 20 25 30 31 29 24 16 12 10 10 9 8 7 7 7 9 79 100 100 99 93 84 78 100 100 100 98 95 58 45 40
62 56 48 43 38 31 26 18 17 19 23 30 33 32 27 20 14 10 9 9 10 10 9 8 6 6 6 6 9 37 85 99 98 70 99 100 100 100 99 99 58 46 42
63 53 46 37 32 23 18 21 25 31 35 33 27 21 14 10 9 9 10 10 10 8 7 6 6 5 6 10 30 85 100 96 93 67 76 94 100 95 99 100 59 48 44
56 47 37 32 22 22 26 31 36 36 30 24 16 10 9 9 10 10 8 8 7 7 6 6 6 6 8 12 70 81 70 100 89 84 69 85 100 100 100 100 63 48 45
45 37 30 23 26 31 38 39 32 28 22 12 9 9 10 10 7 6 6 7 7 7 7 7 9 31 90 94 88 91 80 100 95 96 73 76 100 100 100 100 80 49 46
48 37 27 30 36 41 36 31 26 16 10 10 10 10 8 5 6 7 8 8 8 9 12 12 14 19 40 89 98 93 100 100 100 93 70 89 100 100 100 100 91 51 46
44 30 35 42 42 34 32 25 14 10 10 11 10 7 5 5 7 8 9 11 13 14 15 16 35 71 52 96 100 100 100 99 94 82 80 93 100 100 100 100 87 51 47
35 40 47 41 36 33 25 13 10 11 12 10 7 5 5 7 9 9 11 16 22 27 30 25 30 99 85 100 100 100 100 100 97 94 91 98 100 100 100 100 92 51 48
47 48 42 39 36 27 15 11 12 12 11 8 6 6 8 10 10 12 17 24 30 35 36 35 27 61 98 96 100 100 96 100 100 96 100 100 100 100 100 100 97 54 50
48 44 43 41 35 24 14 12 12 12 10 7 6 9 12 12 13 20 27 31 32 31 33 40 38 42 85 100 100 100 100 100 99 100 100 96 100 100 100 100 97 65 59
49 47 46 46 37 25 15 13 12 11 8 7 9 13 15 14 19 26 30 34 35 35 33 28 38 42 74 100 99 99 100 100 99 95 84 97 100 100 98 100 99 92 88
55 56 56 52 37 22 14 12 11 9 8 9 15 18 16 18 24 28 30 32 30 26 25 30 29 45 45 92 100 100 100 100 99 93 95 100 100 100 100 100 100 100 100
70 69 64 55 36 20 13 11 10 9 10 16 21 19 18 24 31 30 28 22 21 24 23 26 29 36 50 57 99 100 100 100 100 88 99 100 100 100 100 100 100 100 100
86 81 73 53 30 15 12 10 10 12 17 24 23 21 24 31 34 31 22 27 46 50 48 30 28 30 51 59 82 100 100 100 100 84 85 100 100 100 100 100 100 100 100

GFSGL_700_rhum_051.txt.gz
RH
81 83 85 88 87 82 62 54 56 56 69 73 75 81 90 100 97 100 99 97 100 100 100 99 97 92 92 94 91 92 89 88 53 25 34 53 85 79 81 66 31 24 21
74 74 76 65 48 40 52 61 72 82 84 84 92 99 99 98 100 99 99 99 100 100 97 99 98 91 91 93 93 96 100 66 36 15 19 36 76 84 85 90 68 41 28
67 68 57 34 54 62 64 62 63 65 72 75 92 98 99 100 99 99 99 100 99 99 98 95 88 92 94 91 98 97 63 40 42 47 51 78 78 97 97 95 97 81 54
31 41 46 55 55 51 48 48 56 66 76 87 88 93 99 96 98 97 99 100 99 96 90 83 88 92 85 89 80 52 39 69 76 78 91 71 86 97 99 99 93 100 100
56 59 52 49 48 50 57 73 86 87 83 89 97 95 71 86 93 100 100 100 99 84 81 85 75 58 56 59 48 40 30 36 39 63 72 67 89 99 99 100 97 95 84
58 54 52 60 68 40 33 34 37 45 48 53 56 64 72 76 91 93 90 87 82 78 60 48 38 39 37 38 35 34 30 27 28 37 48 64 72 73 80 98 100 92 79
55 61 48 28 27 27 30 34 38 42 44 44 47 54 68 78 87 91 84 67 52 36 22 18 19 21 25 26 23 20 20 26 32 34 40 44 58 72 80 100 100 97 87
33 28 25 23 24 28 30 30 31 35 41 47 51 48 59 69 68 51 41 28 17 13 12 13 15 16 18 19 21 25 31 35 51 62 56 52 63 63 87 92 100 95 91
26 23 23 25 28 29 30 34 40 46 46 44 39 36 35 32 25 18 13 12 12 14 17 20 23 23 22 21 23 20 24 40 56 75 78 79 80 72 75 100 100 100 88
23 25 29 31 32 35 40 47 45 39 35 34 31 26 20 16 13 13 14 18 24 27 28 28 23 17 12 11 10 11 45 60 79 86 87 76 80 90 80 100 95 94 93
29 34 37 38 39 42 48 44 39 35 33 28 23 17 15 15 18 23 28 29 28 24 18 13 10 9 9 9 8 9 55 65 64 74 77 99 91 92 88 82 99 87 84
40 44 46 47 48 51 46 40 37 32 28 22 17 17 20 26 30 28 24 21 15 10 8 8 8 8 9 9 8 7 8 61 100 97 100 99 98 100 95 100 94 90 77
52 56 59 57 54 50 44 38 33 29 20 18 21 26 31 30 25 22 15 9 8 8 8 7 5 4 4 5 6 6 6 8 29 65 100 99 100 99 91 100 98 100 96
63 65 67 62 56 47 41 35 32 22 21 25 31 33 26 23 17 11 8 8 8 7 4 3 3 4 6 6 5 5 12 24 25 39 48 80 99 96 84 100 100 99 95
73 77 72 62 51 43 37 32 23 24 30 34 31 25 21 14 9 8 8 8 6 4 3 3 5 6 6 6 18 65 64 79 90 86 100 100 98 79 87 100 99 100 98
90 82 71 56 45 39 35 26 28 35 36 28 25 19 11 9 9 8 8 6 4 4 4 6 6 6 6 7 9 37 90 90 99 94 89 100 98 92 90 100 100 100 100
95 78 58 44 43 37 28 33 39 34 28 25 18 11 10 10 9 9 7 5 4 5 7 7 7 7 8 10 13 25 84 100 100 92 96 99 94 100 99 100 100 100 99
88 51 43 58 42 32 38 41 34 30 25 19 15 11 11 11 10 9 6 4 6 8 8 9 11 14 16 15 32 44 77 99 98 87 67 94 100 99 93 99 100 100 100
55 81 91 44 36 43 42 35 32 28 21 16 13 12 12 12 11 8 5 5 7 9 11 14 21 24 23 18 64 70 98 98 100 100 97 100 94 85 89 100 100 100 100
94 95 78 66 54 43 38 36 32 29 26 22 18 15 13 12 10 8 6 8 10 10 13 20 27 29 30 24 34 81 100 100 99 100 99 99 91 98 100 100 100 100 100
95 95 91 64 50 42 40 38 37 35 30 24 18 15 13 11 9 7 8 11 11 13 16 22 27 28 29 30 24 63 98 100 100 94 98 100 100 100 100 100 100 100 100
95 94 73 52 46 46 48 49 48 42 33 24 16 13 12 10 8 9 12 13 14 17 20 22 21 22 25 28 30 42 94 100 100 100 100 94 96 100 100 100 100 100 100
95 81 64 56 56 59 62 60 56 47 33 21 15 12 10 9 10 14 16 15 18 21 21 19 20 21 21 27 35 37 78 100 100 100 100 99 100 100 100 100 100 100 100
94 86 73 70 72 75 76 72 64 51 34 19 13 11 10 11 16 19 18 18 21 23 20 28 39 40 29 25 29 44 55 97 100 100 100 100 99 100 100 100 100 100 100
95 94 95 95 96 95 89 80 67 49 28 16 12 11 13 17 22 22 21 24 27 22 27 46 48 48 49 31 27 41 48 83 100 100 100 100 100 100 100 100 100 100 100
96 96 96 97 97 95 91 84 68 41 21 14 13 15 20 25 26 25 26 32 28 24 43 52 51 51 55 49 28 37 57 64 98 100 100 100 100 100 100 100 100 100 100

GFSGL_700_rhum_054.txt.gz
RH
67 76 78 74 78 88 89 91 78 80 71 62 69 84 85 84 86 98 94 94 78 99 99 99 99 99 97 97 96 96 93 95 82 64 71 65 45 28 36 75 73 42 26
80 85 89 84 87 85 72 62 58 61 68 64 62 67 70 79 97 100 95 100 78 99 98 98 99 97 97 92 88 89 94 95 93 67 58 38 37 56 64 71 59 50 47
82 87 90 74 76 69 48 54 58 51 46 47 61 69 78 88 100 100 98 96 97 99 99 99 100 96 92 87 86 82 70 78 76 60 39 37 51 63 66 94 71 72 72
54 48 51 47 40 47 53 50 45 45 52 63 83 93 97 100 91 86 86 73 81 95 100 100 100 92 84 63 46 48 47 50 47 66 73 42 41 41 68 87 75 87 92
36 43 42 50 46 45 45 50 57 65 64 47 42 45 49 54 68 66 70 89 99 96 94 90 79 52 32 20 17 17 27 34 40 43 42 37 31 31 47 91 92 96 95
41 43 61 59 48 53 56 69 50 31 30 34 40 44 48 51 61 62 61 84 82 84 69 42 25 14 12 11 13 15 17 22 22 26 25 32 35 47 54 67 73 77 84
44 61 56 55 58 64 44 28 24 27 31 31 30 34 42 55 57 58 61 58 47 35 21 13 12 13 17 21 23 23 24 23 22 21 22 34 54 63 78 91 80 75 76
47 51 57 57 38 28 24 24 27 27 27 30 38 46 49 48 41 34 30 27 18 14 13 16 22 26 27 26 23 19 15 12 11 12 22 65 67 78 82 87 93 88 82
57 51 33 29 25 23 26 28 28 30 34 42 46 43 38 32 29 24 20 17 16 19 24 25 22 20 17 12 9 8 7 8 9 10 40 71 71 85 88 85 87 100 91
32 31 29 25 25 29 31 34 36 37 45 44 40 34 31 28 26 20 18 21 25 24 19 18 15 10 7 7 8 8 6 6 7 8 30 52 93 75 63 71 92 100 96
33 30 27 28 32 35 39 41 43 47 46 41 36 32 30 27 23 22 24 25 19 16 15 12 9 7 6 6 4 3 3 4 5 6 10 60 100 98 82 84 100 99 93
32 30 30 33 38 43 48 51 50 49 44 38 33 30 23 24 24 25 23 18 16 13 10 9 7 6 6 4 3 3 4 5 6 6 6 6 20 83 100 93 97 99 82
33 34 38 44 49 56 60 58 54 48 41 36 32 23 25 29 28 21 19 16 12 10 9 7 7 6 6 4 3 3 5 5 6 8 9 14 12 10 37 98 85 97 75
41 47 54 60 65 69 68 63 54 44 38 34 25 27 32 29 22 19 15 12 10 9 8 8 8 7 5 3 3 4 5 6 17 76 77 91 93 75 79 67 99 97 85
56 63 70 79 81 80 72 59 46 39 33 28 31 34 28 23 20 18 15 12 12 11 9 9 8 7 5 4 4 5 6 7 10 88 98 96 90 95 97 100 96 74 79
64 70 88 96 96 86 61 47 36 32 30 35 36 28 25 22 19 18 16 16 14 12 11 10 8 5 5 5 5 6 7 8 13 62 100 100 97 96 100 99 90 90 81
71 91 100 100 97 83 77 54 68 43 39 37 30 28 24 20 21 22 22 20 16 14 12 10 6 6 6 7 8 11 10 14 38 39 99 100 98 96 100 98 90 95 94
100 100 100 98 96 93 92 93 82 61 57 41 31 28 27 27 27 28 28 23 16 13 10 8 7 8 8 9 12 15 14 24 70 66 85 96 92 91 95 98 98 100 89
100 99 97 96 95 95 95 95 94 94 76 54 34 33 33 35 35 34 30 23 17 12 10 8 9 10 10 13 17 19 20 23 82 94 100 99 100 100 100 100 89 91 97
97 96 95 95 95 95 95 95 95 90 57 42 43 44 44 43 39 34 26 18 14 10 8 9 10 12 13 16 17 18 23 22 55 99 100 99 94 100 100 96 93 96 99
95 95 95 95 95 95 95 95 92 87 63 54 56 56 54 49 43 34 22 14 11 9 10 12 12 13 16 17 17 18 23 25 27 80 100 100 100 100 100 100 100 100 100
96 95 95 95 95 95 95 95 94 77 70 71 74 73 68 59 46 29 17 12 10 12 15 16 15 16 17 20 26 26 23 27 30 64 97 100 100 100 100 100 100 100 100
96 96 95 95 94 95 95 95 95 94 96 97 95 89 80 58 36 21 14 12 13 18 20 19 20 20 21 37 41 39 27 26 34 61 95 100 100 100 100 100 100 100 100
96 96 94 93 96 97 96 96 97 96 96 97 95 91 77 49 27 17 14 16 21 24 24 25 24 22 30 43 44 45 42 27 37 46 94 100 100 100 100 100 100 100 100
95 93 94 95 96 95 96 97 98 98 98 97 95 92 65 34 20 18 20 26 29 28 29 31 26 29 48 49 48 51 53 31 34 48 78 100 100 100 100 100 100 100 100
92 93 95 96 97 97 97 98 99 99 98 97 90 63 33 22 22 24 30 35 34 33 38 32 30 51 56 55 58 62 57 33 36 57 63 100 100 100 100 100 100 100 100

GFSGL_700_rhum_057.txt.gz
RH
67 64 65 66 81 98 93 91 74 87 95 76 79 57 59 61 66 76 79 81 97 99 87 100 99 100 99 89 97 95 95 88 82 70 73 71 69 74 82 66 65 69 66
70 62 86 99 94 100 96 95 72 69 55 58 57 54 48 58 68 80 90 91 100 82 91 100 100 91 99 95 99 100 92 93 80 33 37 44 55 58 68 69 72 77 68
84 91 74 86 77 78 98 87 57 48 56 52 48 50 58 69 86 89 54 98 100 99 99 99 96 86 97 97 98 89 61 32 29 21 14 21 25 46 58 70 60 71 99
68 73 57 68 70 69 58 62 54 55 52 55 60 64 64 54 64 73 85 76 100 100 75 100 100 98 90 80 48 20 13 13 14 16 18 19 23 27 40 48 57 76 87
59 56 47 47 51 50 50 49 50 54 58 66 68 40 32 35 41 57 64 71 75 66 84 92 87 70 37 16 12 13 16 20 22 23 24 24 24 24 31 40 56 74 81
45 38 39 38 38 45 50 53 58 61 70 44 28 25 30 34 36 42 51 58 58 57 64 45 27 15 13 14 18 20 20 20 20 19 16 14 11 16 18 37 55 79 96
35 37 38 40 48 61 56 62 64 49 28 22 24 27 28 32 39 46 51 48 42 35 25 18 16 16 18 19 16 16 16 13 10 9 8 8 9 9 21 59 83 99 98
38 38 47 57 62 59 64 48 30 24 23 25 26 28 32 38 45 43 38 32 26 22 19 18 19 20 17 14 13 11 10 8 7 7 8 7 7 9 24 63 93 99 98
45 52 59 57 61 58 34 29 24 23 25 28 31 32 37 42 40 35 30 27 22 22 21 22 19 15 15 12 10 10 8 6 6 5 4 3 3 4 6 24 82 99 82
46 52 60 59 39 31 28 25 25 29 33 37 39 40 44 42 36 32 31 26 25 24 23 17 15 13 11 10 9 7 6 6 5 5 4 3 3 5 5 8 44 78 68
48 52 44 33 32 30 27 29 34 37 42 46 46 46 46 41 36 33 27 27 27 23 17 15 14 14 13 11 8 7 7 6 6 5 4 3 3 4 5 6 31 95 99
46 35 34 35 33 31 33 37 40 44 52 55 53 50 45 39 34 27 27 29 23 18 16 17 16 15 14 11 9 8 8 7 5 3 4 4 5 6 14 10 6 44 100
35 36 37 38 36 38 42 43 48 58 66 60 55 47 40 34 28 29 31 23 20 19 20 18 17 17 15 12 10 10 9 7 4 4 4 5 6 15 46 64 23 19 34
37 39 40 41 42 44 50 61 72 78 72 64 49 38 34 28 32 33 25 22 21 21 20 20 21 20 19 15 12 11 9 5 4 5 5 6 8 36 88 88 86 98 72
39 42 44 46 48 55 68 80 87 86 75 57 43 36 33 57 54 38 25 23 22 22 24 26 25 24 22 16 13 12 9 5 5 7 8 9 11 64 89 83 92 77 87
43 46 50 55 64 80 94 100 99 96 90 78 42 76 91 82 67 54 46 25 25 28 31 30 29 26 23 18 14 13 7 6 7 9 10 24 22 79 99 78 99 100 99
53 61 70 82 97 100 100 98 96 89 82 93 95 94 91 87 89 66 38 30 33 35 36 35 32 28 23 17 14 10 6 7 10 12 14 54 53 84 100 93 95 100 99
63 76 97 100 100 98 96 96 96 95 96 95 95 95 96 95 78 60 46 40 43 44 42 37 31 24 19 14 10 7 7 9 13 15 18 93 100 87 98 97 100 91 87
96 100 100 98 96 96 95 95 94 95 95 95 96 94 92 83 66 54 51 54 56 53 44 35 24 18 14 10 8 9 9 11 14 17 18 76 100 98 96 100 100 96 98
98 97 97 96 95 95 96 96 96 96 95 95 95 94 94 89 71 68 75 78 70 56 42 30 21 16 12 10 10 11 12 14 18 20 21 48 98 100 98 91 91 100 95
96 95 95 96 96 95 96 96 96 96 96 96 96 96 96 94 96 96 94 91 79 53 37 23 17 13 11 12 13 14 16 22 28 24 22 23 95 100 100 100 97 100 100
96 96 96 96 96 96 96 96 96 96 96 97 97 97 98 99 96 96 95 90 69 45 23 17 14 14 16 17 17 17 19 33 35 32 25 25 38 100 100 100 99 100 100
96 96 96 96 96 96 96 96 96 96 96 97 98 99 99 98 97 97 96 87 64 30 20 18 18 20 23 23 24 22 30 40 39 39 28 27 36 88 100 100 100 100 99
96 96 95 95 96 96 96 96 97 97 97 98 100 100 99 99 99 99 93 70 36 24 22 24 26 28 27 28 27 38 48 46 44 46 37 29 37 91 100 100 100 100 100
96 96 96 96 94 94 95 97 98 99 100 100 99 100 100 100 98 80 50 30 25 26 30 34 36 34 36 31 40 58 57 55 58 58 40 34 45 90 100 100 100 100 100
96 96 95 95 95 96 97 98 98 98 97 98 99 96 84 67 48 36 31 30 32 34 41 43 43 45 38 37 64 68 66 66 65 50 33 41 56 92 100 100 100 100 100

GFSGL_700_rhum_060.txt.gz
RH
56 58 57 52 53 58 81 88 94 99 92 88 97 98 84 74 69 68 60 62 71 82 97 74 100 90 92 88 99 95 80 99 79 90 79 69 40 31 36 38 41 40 47
66 66 75 94 92 98 100 85 97 100 88 88 91 74 57 55 50 56 61 73 87 98 82 75 95 86 89 100 100 98 72 98 89 69 35 16 12 14 15 22 29 42 53
66 68 97 78 76 72 93 90 79 59 68 70 64 57 54 53 55 62 72 92 99 71 83 99 89 76 98 98 98 96 98 82 48 17 12 12 16 19 20 22 23 29 34
62 80 68 74 62 62 73 97 72 64 51 55 57 56 58 60 66 76 43 56 56 88 99 64 100 100 83 100 95 84 43 18 13 15 15 13 14 14 16 17 15 20 22
56 64 64 65 61 59 70 72 58 54 53 54 59 63 67 75 58 30 30 40 63 80 78 72 64 52 70 63 34 18 15 18 17 12 11 10 10 8 8 8 8 9 9
51 60 62 53 50 56 48 50 51 56 63 64 64 71 66 34 27 32 35 41 49 56 60 60 50 41 31 18 17 18 19 14 12 11 10 9 8 6 6 6 6 7 9
42 47 48 47 44 46 50 52 65 75 70 71 67 36 25 26 29 33 40 50 56 57 52 41 29 22 20 20 21 16 14 12 11 11 9 7 6 6 5 5 4 3 4
49 39 40 42 43 45 49 59 67 65 66 39 27 24 27 31 35 42 50 51 48 40 32 26 23 23 23 20 15 13 12 12 11 9 7 7 6 6 5 4 4 3 4
44 42 47 49 49 51 63 65 75 52 30 26 25 29 34 39 43 47 46 42 37 31 28 25 25 26 20 16 14 14 15 13 12 10 8 8 7 7 5 4 4 4 4
43 46 46 53 56 62 74 73 36 30 28 26 31 38 44 48 48 47 45 39 33 30 26 27 27 21 16 15 17 16 14 14 13 13 10 9 8 8 5 4 5 5 6
52 50 50 52 62 73 53 33 32 32 29 30 36 42 48 53 52 49 41 34 30 26 28 29 22 18 18 19 17 16 16 17 17 16 12 10 9 8 5 4 5 8 18
59 67 64 66 62 39 33 34 35 33 34 40 47 54 60 60 55 47 38 31 27 30 30 22 20 20 19 18 20 21 21 21 20 18 14 11 10 9 5 4 5 7 43
53 62 59 47 36 35 36 38 38 39 46 55 64 71 70 63 51 38 30 27 32 30 24 35 26 30 20 23 25 25 25 25 23 19 15 13 10 7 4 4 5 20 73
58 56 48 39 37 37 39 42 46 53 65 75 83 82 71 56 38 30 30 37 49 84 59 56 48 26 25 28 30 30 29 27 23 19 15 12 7 5 5 6 7 61 88
58 54 47 42 42 46 50 56 67 81 89 95 93 82 61 42 46 58 85 94 81 62 82 68 52 40 31 35 36 36 34 30 25 17 12 7 5 5 6 9 61 89 100
61 59 54 51 56 62 72 84 96 100 100 99 96 76 89 93 91 96 96 95 92 95 71 62 59 39 41 44 44 43 38 33 25 14 8 6 6 7 9 26 97 99 95
68 69 70 73 83 93 100 100 100 100 96 92 95 95 94 96 96 95 95 96 96 91 91 89 64 51 54 55 52 46 40 32 23 11 8 8 9 10 26 45 87 100 95
91 95 97 100 100 100 99 98 96 96 96 95 95 96 96 96 96 96 96 95 96 96 96 95 90 91 86 66 55 47 39 28 15 9 9 9 12 14 56 88 82 91 98
98 98 97 98 97 96 96 96 96 95 96 96 96 96 96 96 95 95 94 95 96 96 96 97 96 95 89 64 50 44 31 18 11 10 10 12 15 17 48 99 100 94 98
98 98 97 96 97 98 96 95 95 95 95 95 95 95 96 96 96 96 95 95 95 96 96 96 96 95 75 59 50 35 21 13 13 13 13 15 21 20 30 95 100 100 100
96 95 97 96 96 96 96 96 96 96 96 96 96 96 95 96 97 97 97 97 98 98 98 98 97 90 77 58 35 23 15 16 17 16 16 25 28 24 26 88 100 100 100
96 96 95 95 96 96 96 96 96 96 96 96 96 96 96 97 97 97 98 98 99 100 98 97 97 88 62 37 24 18 19 20 20 19 24 32 33 30 25 77 100 100 100
96 95 95 96 96 96 96 96 96 96 96 96 96 97 97 97 97 98 99 100 99 99 100 98 78 48 32 25 26 27 25 25 24 28 39 38 38 36 27 33 100 100 100
95 94 95 96 96 96 96 96 96 96 96 97 98 99 100 100 100 100 100 100 100 99 84 54 38 31 28 29 34 36 34 30 32 49 48 44 44 43 32 33 76 100 100
96 97 97 96 96 96 96 96 96 97 97 98 98 99 99 99 98 93 86 75 61 48 41 38 36 35 37 42 44 43 38 37 56 61 56 56 58 41 38 45 72 100 100
97 97 96 95 91 80 69 60 50 39 30 26 27 27 30 31 36 40 44 45 46 44 43 44 46 46 48 51 52 45 41 63 72 71 65 61 45 37 55 63 99 100 100

GFSGL_700_rhum_063.txt.gz
RH
52 56 45 43 52 60 66 68 78 99 98 99 96 93 88 94 91 93 80 78 67 61 76 66 87 76 80 68 74 89 81 87 80 84 96 75 92 84 40 20 13 12 13
55 56 78 64 73 92 94 92 85 99 91 97 84 80 89 98 99 80 66 74 68 66 66 99 80 100 66 80 100 99 76 92 100 100 62 84 60 17 13 13 13 11 11
57 56 59 90 99 91 77 94 82 86 87 86 86 70 82 85 65 63 52 56 63 75 86 95 99 100 67 100 98 73 88 100 82 82 70 26 15 14 12 10 10 10 9
54 53 55 75 63 79 82 77 86 93 78 77 81 80 71 66 63 63 60 68 75 84 58 53 46 49 100 81 70 99 90 60 88 45 18 16 14 12 11 10 10 8 6
30 41 48 64 72 68 61 67 76 87 83 79 71 60 57 60 65 66 71 78 71 75 31 49 34 96 50 61 74 66 54 41 20 18 18 13 12 12 12 10 8 7 7
33 33 39 47 56 62 57 57 62 66 61 59 62 56 58 66 69 73 78 52 28 31 31 37 46 52 59 60 52 40 23 20 21 18 14 13 14 14 11 9 8 8 8
30 31 36 39 50 58 60 54 52 53 58 60 59 63 65 74 77 72 35 29 32 35 40 47 53 52 48 42 30 21 22 22 17 14 15 15 14 12 11 11 9 9 8
37 39 53 53 49 55 56 53 53 55 57 66 69 73 84 78 40 28 29 33 36 41 48 50 50 44 35 24 22 25 23 16 14 16 16 14 14 15 14 12 12 11 9
48 56 52 64 58 57 56 54 55 56 66 73 79 84 44 30 28 30 35 41 45 48 50 47 41 31 24 23 27 24 17 16 18 16 16 18 19 18 16 16 13 11 10
75 64 48 58 56 52 55 60 66 68 74 79 82 38 30 30 34 39 44 50 52 51 48 39 30 25 25 29 26 19 18 19 18 19 21 22 23 24 21 16 13 12 8
51 50 49 52 62 67 74 76 74 79 86 65 34 33 35 39 44 50 58 60 56 50 40 31 26 26 30 30 20 21 24 30 22 24 24 27 30 29 25 18 14 10 6
50 46 42 40 59 84 94 94 91 73 43 36 37 40 45 53 62 69 69 63 54 41 31 26 36 42 47 22 42 40 59 34 38 29 32 35 36 33 30 20 15 10 6
47 47 44 48 61 79 94 80 56 41 39 41 46 52 60 69 77 80 74 60 41 30 29 57 36 30 53 88 80 67 63 56 41 36 41 43 41 37 33 21 15 8 5
48 51 52 60 75 78 66 52 45 44 46 50 58 68 76 84 91 86 71 48 40 47 56 43 68 95 95 95 94 76 57 59 56 63 59 52 45 39 33 19 13 7 5
42 51 60 68 71 66 60 55 53 56 61 68 76 85 94 100 97 87 72 51 60 90 94 96 96 95 95 92 77 89 92 81 85 86 75 58 48 43 32 14 8 6 9
49 56 65 72 75 73 70 70 72 76 86 96 100 100 98 97 96 86 80 93 97 96 96 95 95 96 96 95 96 96 95 95 96 94 81 58 50 42 26 10 7 10 21
60 70 82 87 90 90 91 93 96 97 100 98 97 96 96 95 96 96 98 96 96 96 96 96 96 96 96 96 95 96 97 96 96 91 68 58 47 33 13 8 8 19 65
98 99 98 98 97 97 97 97 97 98 98 98 97 96 96 96 96 96 96 96 96 96 96 96 96 96 96 98 98 96 97 97 94 79 67 51 35 19 10 9 12 23 79
99 99 99 98 98 98 98 98 97 96 96 96 96 96 96 96 96 96 97 97 96 96 96 97 97 98 97 97 97 97 97 93 87 75 54 35 17 12 11 12 16 20 93
98 98 98 97 97 97 97 97 96 96 96 96 96 96 96 96 96 96 96 97 97 97 97 97 97 97 97 97 97 94 93 92 77 54 35 19 15 15 14 15 23 21 99
98 97 96 95 96 96 96 96 96 96 96 96 96 96 96 96 97 98 97 97 98 98 97 98 98 98 98 97 96 96 92 74 47 31 21 19 19 17 20 27 29 23 86
96 95 95 95 95 95 96 96 95 96 96 97 97 97 97 98 97 97 98 98 98 99 100 100 100 100 100 99 97 89 67 42 29 24 24 24 24 25 34 37 35 26 78
95 95 96 96 96 95 96 97 97 97 98 98 98 98 98 97 97 97 97 99 100 100 100 100 100 99 95 82 63 47 37 32 31 34 32 30 33 49 48 42 39 29 78
95 96 96 96 96 96 97 98 97 97 97 96 96 96 93 85 78 74 69 64 58 54 51 50 51 50 48 46 44 41 38 37 39 42 39 34 56 62 56 50 46 31 47
96 96 96 96 96 96 96 96 95 92 70 34 17 14 11 11 12 12 14 16 18 23 31 37 43 46 48 49 48 49 54 56 54 49 42 60 71 70 64 60 49 35 40
96 95 95 95 93 76 44 20 12 11 9 7 7 6 6 6 6 8 10 14 20 30 39 48 56 59 58 57 59 64 67 66 56 54 71 79 77 78 62 45 43 48 53

GFSGL_700_rhum_069.txt.gz
RH
50 53 50 43 40 40 44 50 54 55 59 53 46 47 52 56 58 58 49 50 58 89 94 100 100 87 87 81 85 77 93 87 100 78 99 98 96 96 96 83 85 65 60
52 53 56 58 58 60 54 51 50 52 62 68 65 71 49 48 49 52 59 69 91 90 100 99 100 96 86 84 81 86 90 98 97 94 72 96 69 99 77 97 70 53 26
48 47 53 56 64 60 59 61 64 67 75 71 84 97 100 98 100 100 98 100 99 99 99 88 79 90 80 82 78 92 100 98 98 88 62 77 100 94 97 75 58 22 21
29 25 29 37 48 57 62 68 74 78 73 78 86 100 97 92 100 100 100 99 99 100 93 92 84 74 67 95 93 99 62 98 86 80 57 83 80 84 79 64 23 22 21
20 24 23 24 26 39 54 56 68 84 79 89 87 100 90 83 96 100 100 98 94 88 93 92 70 67 71 84 99 97 38 75 57 41 72 63 65 82 75 27 23 24 20
24 24 30 30 19 23 30 36 42 58 68 79 84 77 82 98 98 91 92 84 86 92 86 85 71 74 97 100 99 63 53 50 51 60 70 61 87 75 26 23 24 23 26
35 33 34 35 37 32 32 32 39 55 62 63 73 80 85 88 90 75 77 80 79 69 72 75 76 98 99 99 48 49 48 50 62 75 86 87 63 26 24 25 31 31 39
37 36 36 38 41 43 44 40 43 48 58 60 62 68 70 70 67 69 69 74 80 86 87 87 97 100 100 60 46 45 52 68 76 87 80 52 25 25 25 35 59 45 74
38 36 34 43 46 48 53 57 46 57 59 61 68 69 64 61 59 60 67 70 76 81 97 100 100 99 57 42 48 56 75 86 85 75 42 25 26 25 38 86 66 81 68
32 34 38 47 54 61 58 66 62 50 58 60 61 64 63 64 64 64 65 70 77 89 99 99 97 62 44 50 60 77 82 81 63 36 29 40 27 42 88 88 88 84 85
31 33 42 54 58 63 57 66 58 53 67 68 62 64 70 71 72 74 75 80 88 100 99 89 51 48 56 66 76 81 77 72 67 54 49 74 92 94 93 94 95 92 90
36 39 47 62 65 56 56 78 72 54 48 60 80 74 74 85 95 99 97 100 100 98 87 64 58 66 73 81 85 90 93 91 75 89 95 95 95 96 97 96 95 94 93
38 44 57 55 46 53 62 70 61 62 57 61 78 69 96 76 99 99 100 98 94 81 70 68 74 82 88 93 96 96 95 94 96 97 96 96 96 96 96 96 97 94 87
33 34 39 49 53 57 67 65 48 53 99 80 98 86 94 100 99 97 99 83 77 75 80 85 91 95 96 97 96 95 96 97 95 95 96 96 97 98 97 95 91 86 81
43 49 55 52 48 46 46 53 69 89 99 98 100 100 99 97 97 98 86 84 88 92 95 96 96 96 95 94 94 95 95 95 96 96 97 96 95 94 93 91 89 86 82
66 61 59 61 55 50 57 64 71 89 100 100 99 98 98 99 98 97 96 96 96 96 96 95 94 95 95 95 95 96 97 97 96 97 96 95 93 90 89 89 89 88 84
97 95 87 93 87 94 94 99 99 97 95 98 97 97 97 97 97 96 96 95 95 95 95 95 95 95 94 94 95 96 97 96 96 94 94 94 93 92 89 90 90 82 76
99 100 98 98 99 99 99 97 97 98 98 96 96 96 96 96 95 95 95 95 95 96 96 96 95 95 95 96 95 96 97 98 98 96 95 95 95 94 92 88 85 82 76
99 94 96 99 98 98 98 99 99 99 99 98 97 96 96 96 96 96 96 97 96 96 95 95 96 97 98 98 98 100 99 98 97 96 97 98 98 95 92 90 84 74 61
99 99 98 98 98 98 98 97 97 96 97 97 96 96 96 96 96 96 95 95 96 94 96 97 96 96 97 98 99 96 89 81 73 65 61 62 68 73 74 68 58 48 38
98 99 96 97 96 97 96 96 97 96 96 98 96 95 95 95 94 94 94 93 93 94 93 93 92 81 56 30 14 11 10 12 14 17 23 32 41 48 50 47 42 38 33
98 96 95 94 96 96 96 96 95 96 95 94 94 93 94 94 92 91 92 92 88 67 36 14 8 8 7 6 6 6 7 8 12 18 28 42 52 55 55 53 50 47 42
96 97 96 95 95 95 95 96 96 97 96 95 94 94 94 92 82 53 25 11 8 7 7 6 6 6 7 8 10 12 16 21 29 41 53 63 67 68 67 67 62 55 52
94 95 95 95 94 94 95 95 96 95 94 80 54 28 14 10 9 8 7 7 7 7 7 7 8 10 14 19 24 28 35 45 56 64 69 72 79 81 76 70 66 72 83
95 94 94 92 89 81 64 32 16 11 11 10 9 7 7 7 8 8 8 8 8 9 11 14 18 23 28 32 36 44 53 61 68 71 76 84 83 78 78 88 99 100 99
42 25 16 12 11 11 10 9 8 7 7 8 9 10 10 9 9 9 9 11 14 19 24 27 29 31 34 39 46 54 62 69 76 78 79 75 80 96 100 100 100 100 99

GFSGL_700_rhum_072.txt.gz
RH
42 45 43 35 32 34 37 41 47 50 56 42 37 40 52 62 66 67 67 76 76 70 73 73 73 53 68 99 100 95 96 99 93 99 95 88 85 96 98 65 65 59 82
48 51 53 54 51 50 47 42 42 45 52 54 55 48 46 49 56 60 60 61 68 72 75 74 53 58 94 99 99 96 88 95 89 93 76 100 88 78 100 78 69 97 81
47 51 54 57 60 57 55 54 56 55 54 56 55 59 59 74 64 58 58 68 69 69 69 64 73 91 96 97 97 94 89 94 97 97 100 96 87 98 86 67 100 94 70
40 43 45 46 42 57 65 62 61 62 59 61 63 71 78 70 75 84 95 96 84 99 100 100 100 99 99 99 98 99 91 91 100 98 100 71 62 91 51 89 92 68 80
32 30 23 27 28 38 55 65 68 69 68 67 72 78 78 87 98 99 99 99 100 100 99 99 99 100 100 98 98 90 84 96 99 100 93 50 52 54 77 95 84 89 83
33 33 26 22 22 22 27 38 56 57 65 75 75 82 88 90 90 100 98 91 96 100 98 91 92 93 96 98 100 96 100 100 100 81 64 68 66 69 84 93 95 86 36
34 34 28 24 22 28 33 27 24 33 48 52 62 82 84 84 82 86 87 98 100 100 93 85 86 88 91 99 100 99 100 100 100 90 84 62 67 83 100 100 81 37 26
36 36 34 33 32 34 36 37 38 31 34 42 53 66 72 82 92 88 92 98 100 98 90 88 88 92 90 94 99 100 100 100 100 98 65 55 89 100 99 73 37 28 34
35 36 38 37 38 38 40 44 45 46 45 44 49 61 66 67 70 79 86 89 83 82 88 90 86 87 93 98 100 99 99 100 100 68 80 89 98 92 64 42 46 74 80
39 39 34 38 40 42 44 48 50 59 56 55 50 58 68 70 70 70 72 74 74 72 71 92 87 100 100 100 100 97 92 100 79 100 100 99 82 77 85 92 90 89 92
36 38 36 34 40 42 47 54 60 64 64 68 64 53 62 64 66 66 68 68 70 76 83 91 100 99 100 99 99 98 93 74 100 100 91 84 96 94 92 92 92 93 89
31 37 36 36 38 46 50 55 66 68 74 77 75 61 55 58 66 68 68 72 82 93 99 100 100 99 98 97 98 89 83 95 97 89 94 95 92 91 91 95 93 92 97
34 34 39 40 36 42 57 72 74 77 62 67 67 79 68 70 68 86 94 91 96 100 100 100 98 97 96 98 95 92 88 94 96 93 91 95 92 94 95 94 93 93 94
43 43 45 53 46 63 70 64 60 57 61 70 76 76 64 75 100 98 99 100 100 100 98 97 96 97 96 99 98 97 95 95 95 95 94 95 96 95 95 94 93 94 93
50 51 48 48 49 52 50 55 68 69 76 62 49 62 95 98 98 100 100 99 97 97 97 96 96 96 96 96 96 96 95 95 95 94 94 94 95 95 94 93 93 91 84
51 50 50 52 57 61 60 59 57 51 54 64 84 94 99 100 98 97 97 97 97 96 96 96 94 96 95 96 95 95 95 92 90 93 94 93 92 92 90 86 85 85 86
77 76 77 74 75 73 79 88 94 91 90 96 98 98 99 99 97 97 97 96 96 96 94 96 96 96 95 95 93 92 91 87 90 90 90 89 86 88 89 91 93 93 91
100 100 99 100 99 99 99 98 98 98 98 98 98 99 98 99 98 97 96 96 95 95 95 95 94 93 92 92 90 89 88 88 90 90 89 90 93 93 89 83 79 82 86
96 97 98 98 98 99 98 99 97 98 98 98 97 97 97 98 98 98 98 98 99 98 95 94 94 92 89 88 88 87 88 91 91 75 53 29 16 12 14 17 22 31 43
100 100 98 98 98 98 100 98 97 97 96 96 96 96 96 96 95 95 96 96 96 96 96 94 90 88 88 88 83 64 30 11 8 7 6 6 6 7 10 16 26 35 43
98 98 97 96 96 96 95 95 95 95 95 96 96 96 94 94 95 94 93 94 94 94 93 90 84 64 31 9 7 7 6 6 7 7 8 10 12 16 23 33 43 52 54
99 97 98 98 96 96 96 96 95 95 95 96 96 96 95 95 95 95 94 92 86 63 33 12 8 7 7 7 7 7 8 10 11 13 17 21 27 38 50 59 64 64 63
95 97 98 97 96 96 96 95 95 96 96 95 95 94 94 90 73 43 20 11 8 7 7 7 7 7 7 8 10 12 15 18 22 26 32 41 52 61 65 69 72 74 74
96 95 94 95 95 94 95 96 94 92 89 68 37 16 11 10 9 7 7 7 8 8 8 8 9 10 13 15 18 22 25 27 31 37 46 55 64 70 76 78 78 77 77
87 83 77 67 53 40 24 15 11 10 10 9 8 7 7 8 8 9 9 9 9 9 9 12 15 18 22 25 27 28 30 36 42 50 59 66 72 74 73 76 89 95 100
10 10 10 10 10 9 9 8 7 7 7 8 9 10 10 11 11 11 10 10 10 13 17 20 23 26 27 28 30 33 38 44 52 59 63 63 67 80 90 97 100 100 100

GFSGL_700_rhum_075.txt.gz
RH
27 28 28 29 30 32 36 39 42 43 43 44 38 37 48 65 89 88 86 91 92 98 99 93 75 74 77 80 83 82 79 61 90 100 99 95 88 97 98 92 90 92 67
30 35 39 44 45 41 42 36 35 38 45 48 52 45 39 38 48 73 81 79 86 84 81 78 77 76 80 85 87 79 75 65 90 100 94 98 99 100 98 98 93 64 89
33 39 43 46 50 53 53 49 47 47 44 45 48 52 54 52 48 45 47 55 64 65 63 67 69 74 77 77 76 81 86 96 92 100 86 95 95 100 97 100 96 72 76
38 39 42 46 50 53 58 61 54 54 54 54 52 49 52 53 55 57 60 64 60 56 57 58 75 68 62 97 99 99 100 99 97 99 100 89 95 99 98 99 100 73 54
42 43 38 42 45 44 46 50 61 65 58 58 60 58 52 56 58 60 65 69 66 73 97 96 98 96 100 100 100 97 99 95 94 91 100 96 99 97 100 99 84 78 79
41 35 32 33 30 24 26 26 35 54 65 66 67 70 70 61 63 68 78 86 97 97 97 100 100 100 99 100 92 92 97 100 99 99 99 98 99 100 100 96 93 69 80
36 34 32 32 33 30 22 22 23 24 35 48 63 66 64 70 72 71 82 97 95 99 100 98 95 100 99 98 99 99 96 96 94 91 99 100 99 98 100 100 80 74 100
37 33 33 33 33 31 24 21 25 30 31 28 23 30 45 62 72 76 80 89 99 81 86 87 92 99 100 98 97 100 99 98 99 100 100 100 98 97 97 96 79 98 99
36 37 36 34 35 34 28 30 29 31 35 37 40 31 30 39 48 64 75 84 86 92 92 91 93 97 99 97 98 99 100 100 100 99 99 98 98 99 98 97 100 100 84
36 36 40 38 38 38 32 33 34 36 39 42 46 50 50 44 44 52 63 69 77 84 90 96 99 100 96 100 86 100 90 97 99 100 98 97 97 96 98 100 98 79 93
37 38 41 42 40 47 52 47 37 36 38 43 48 55 61 61 59 54 59 74 81 83 85 88 89 86 88 100 100 100 100 100 98 98 97 96 96 98 99 96 95 94 95
37 35 37 39 42 45 51 44 42 43 41 47 52 60 69 75 76 70 65 67 72 75 77 87 93 98 100 100 100 100 98 98 96 96 96 97 96 95 95 95 95 95 95
44 39 40 37 35 35 45 47 52 59 57 59 73 80 92 83 88 67 73 80 78 79 79 98 100 100 100 100 99 96 97 96 97 97 95 95 94 95 94 94 92 93 94
45 42 44 48 47 48 54 56 54 62 79 92 95 99 99 77 74 76 88 84 73 99 100 100 100 100 99 98 97 97 96 96 95 95 95 94 95 91 94 96 94 95 95
64 57 59 56 64 65 74 77 91 84 97 99 97 99 100 95 96 99 100 99 94 99 100 100 98 97 97 96 96 96 95 93 92 96 96 94 92 93 92 90 87 84 83
100 99 95 87 96 71 90 98 94 94 100 100 99 100 100 100 100 99 100 100 100 98 96 97 96 96 96 96 94 92 93 94 96 91 84 80 81 80 80 81 81 82 83
100 100 100 100 100 100 100 100 100 98 99 89 97 99 99 99 99 99 98 97 96 97 97 96 96 95 95 94 94 95 91 87 85 82 82 82 83 83 81 73 53 31 17
92 97 96 98 100 100 96 96 90 90 100 98 99 99 98 97 96 97 96 96 96 96 96 96 96 96 96 95 93 91 88 85 85 85 82 70 46 20 7 6 6 6 6
92 98 99 84 93 98 98 98 98 98 97 97 97 97 96 96 96 96 95 95 96 95 95 95 95 95 95 94 93 90 88 81 65 34 10 6 6 6 6 6 7 8 9
100 96 98 100 96 99 96 97 96 96 96 96 96 96 96 95 95 95 95 95 96 96 95 96 95 93 93 91 83 58 22 8 6 6 6 6 7 7 8 9 11 14 19
94 95 97 96 96 98 97 95 96 96 96 96 96 95 96 95 96 96 96 95 95 95 95 95 94 86 47 11 7 7 6 6 7 7 8 9 11 13 16 19 23 31 42
93 94 95 96 95 96 97 96 97 96 96 96 96 95 95 95 95 94 94 94 92 85 64 25 10 7 7 7 7 7 7 8 9 11 13 17 20 23 26 31 38 48 57
93 94 94 94 94 95 96 94 95 95 94 95 95 95 95 94 86 68 44 21 9 8 7 7 7 7 8 8 8 10 11 13 16 20 22 24 27 30 35 42 52 60 66
92 91 90 90 90 88 86 85 80 71 58 43 26 15 11 9 8 8 7 7 7 7 8 8 8 9 9 11 13 16 19 21 23 23 25 28 34 39 44 52 57 61 70
37 26 17 14 11 10 9 9 9 9 9 8 8 7 7 7 7 8 9 9 9 10 10 10 10 12 16 17 19 21 22 23 24 28 32 38 43 46 50 58 72 83 92
10 9 9 9 9 8 8 7 7 7 7 7 8 9 9 10 10 11 11 11 11 10 10 12 15 18 19 20 21 22 23 26 32 38 42 43 45 54 72 81 87 92 89

GFSGL_700_rhum_078.txt.gz
RH
20 21 24 26 28 31 34 36 38 40 41 42 42 49 62 70 81 100 100 100 98 98 99 99 92 96 92 96 99 95 88 93 92 88 85 84 76 72 75 100 99 83 91
23 25 27 28 29 31 33 32 34 36 39 42 44 46 44 42 49 64 81 98 99 100 92 93 90 92 93 84 100 97 91 88 89 83 89 88 93 95 75 86 100 98 100
23 25 26 31 37 40 44 46 44 43 40 40 40 39 43 50 49 44 46 55 72 82 84 91 95 99 100 100 95 88 84 87 84 83 92 100 100 100 100 99 99 99 99
25 23 25 31 39 44 48 52 54 58 56 50 50 50 47 47 48 51 52 52 50 52 64 73 80 88 82 85 83 91 89 84 91 99 98 96 97 90 99 99 77 97 100
40 32 34 36 37 42 46 49 53 57 61 66 63 54 54 54 54 51 52 54 55 56 55 62 62 67 96 98 97 98 98 96 99 100 97 90 88 89 92 100 100 100 99
39 42 43 41 39 44 47 46 39 34 40 47 45 57 66 62 60 62 59 54 56 58 61 69 80 97 81 99 98 99 99 99 100 100 99 100 97 99 99 98 100 100 98
41 40 38 37 42 44 37 34 32 28 24 23 26 37 46 59 67 75 81 85 65 61 63 71 89 100 99 100 98 94 96 98 99 99 100 99 99 98 100 97 99 99 99
55 42 38 40 38 36 35 32 33 32 31 25 20 21 26 24 28 38 65 96 99 94 90 73 82 93 99 99 93 98 100 99 94 99 99 99 99 100 99 99 99 98 97
46 56 43 44 42 42 37 35 33 33 28 26 23 29 32 34 31 28 35 52 74 82 96 97 92 86 93 95 98 99 100 96 100 94 100 100 100 100 99 100 98 96 97
45 45 45 42 45 47 46 40 38 35 28 25 31 34 36 39 41 37 38 42 46 59 73 84 92 93 88 85 97 100 100 100 100 99 97 93 100 100 100 98 96 96 95
45 43 45 43 41 38 43 47 44 43 29 31 36 37 36 39 42 48 54 57 59 60 57 75 95 93 100 100 100 100 100 100 99 99 100 100 100 99 96 97 97 97 94
54 45 43 46 47 42 38 41 48 66 56 59 62 63 57 42 45 51 58 69 74 83 80 96 99 100 100 100 99 100 100 100 100 100 99 98 97 98 97 96 95 94 95
57 56 47 48 49 54 55 60 57 63 64 62 67 71 70 60 73 75 76 91 97 100 100 95 97 92 96 100 99 99 100 99 98 98 97 97 96 96 96 95 94 93 91
65 63 60 57 58 56 60 62 70 65 66 90 97 99 99 97 99 98 99 100 100 99 99 100 100 100 100 99 100 99 97 99 98 96 96 96 95 94 91 91 90 83 74
99 96 91 78 88 68 70 68 71 83 90 100 100 97 100 90 100 100 100 99 99 99 100 99 99 99 98 99 96 97 97 96 96 96 96 95 94 93 85 75 74 73 73
96 98 99 100 100 100 100 93 93 99 90 93 100 100 99 100 98 99 98 99 99 98 98 98 97 97 97 96 96 95 95 95 95 94 95 94 92 82 78 78 78 66 38
59 86 82 97 95 98 99 100 100 99 100 100 100 99 98 100 100 98 98 98 96 96 97 96 96 95 96 96 95 95 95 94 94 94 93 90 81 74 49 17 6 6 6
71 81 84 96 91 94 95 98 96 98 99 98 99 98 98 98 97 96 98 95 95 95 96 96 96 95 94 94 94 94 94 94 93 88 72 41 15 6 6 5 6 6 6
81 96 97 99 100 98 97 97 97 96 98 97 97 96 96 96 97 95 95 96 96 96 96 95 95 96 94 95 95 95 94 87 59 21 7 6 5 5 6 7 7 8 9
87 97 98 96 96 97 97 96 100 96 99 95 96 98 96 96 95 95 95 95 95 96 96 95 95 95 95 94 92 72 25 8 6 6 6 6 7 7 8 9 11 14 16
96 97 99 99 99 97 97 95 93 92 92 94 95 95 95 94 95 96 95 96 95 95 95 95 94 85 52 17 7 6 6 6 7 7 7 8 9 10 12 16 19 21 23
96 96 95 94 96 99 98 96 96 93 97 96 94 96 96 95 95 95 96 96 94 80 57 23 8 7 6 6 6 7 7 8 8 9 10 12 14 16 19 20 23 26 30
96 95 95 95 94 93 93 94 95 93 93 93 89 84 76 61 44 24 11 8 8 7 7 7 7 7 8 8 8 8 9 10 11 12 15 18 18 19 20 24 27 31 36
78 71 64 57 50 43 36 28 23 18 12 10 9 9 8 8 7 7 7 7 7 8 8 9 9 9 9 9 9 10 12 14 16 18 18 18 19 22 26 29 33 42 53
9 9 9 9 9 9 9 8 8 8 8 7 7 7 7 7 8 9 9 9 9 9 10 10 10 10 10 11 14 16 18 19 19 18 18 21 26 29 31 36 50 63 67
9 8 8 7 7 7 7 7 7 7 8 8 9 10 10 10 10 10 10 11 12 12 12 11 11 12 14 18 20 20 20 19 20 22 27 30 31 34 42 57 63 67 70

GFSGL_700_rhum_081.txt.gz
RH
17 16 18 22 25 28 29 32 35 38 38 39 43 50 61 78 96 96 93 96 94 94 99 99 98 100 96 98 100 100 99 100 99 96 98 91 94 87 84 88 93 99 98
33 19 19 21 24 27 28 30 32 34 38 39 40 42 43 45 52 66 62 65 94 95 96 100 99 100 97 100 100 99 100 100 100 99 99 100 100 88 85 87 94 99 99
37 35 21 23 26 27 30 33 37 38 40 40 40 42 41 43 45 47 52 60 61 63 88 98 89 99 98 95 90 88 92 91 97 100 100 99 90 84 88 99 98 99 100
49 39 35 23 25 26 29 34 41 46 49 53 55 48 45 44 44 45 48 49 49 49 52 51 53 57 59 75 88 94 95 98 97 100 99 99 96 94 100 99 99 99 99
73 57 41 33 23 24 28 32 40 47 51 54 58 61 64 62 54 52 52 50 50 52 53 55 56 56 57 70 83 81 86 98 99 99 99 99 98 98 99 99 98 100 99
83 62 71 54 46 36 28 28 34 41 45 48 52 55 59 56 57 69 63 55 56 55 55 54 55 56 58 60 72 82 97 96 99 98 98 96 97 92 99 99 99 99 98
51 49 73 77 57 46 47 46 45 39 42 47 39 36 29 31 36 47 69 82 83 79 74 71 67 63 59 60 65 86 97 98 98 100 93 94 98 100 97 97 99 100 98
70 58 52 50 53 50 49 46 44 46 48 46 34 30 26 23 24 32 48 69 78 83 94 97 97 95 85 72 69 75 98 100 99 96 94 99 99 98 100 95 100 99 100
60 67 68 59 56 50 48 43 44 45 45 45 36 33 29 25 25 23 28 37 48 51 41 55 70 85 94 97 100 97 84 86 97 100 100 95 99 100 98 98 100 100 100
51 49 48 52 47 46 56 61 53 51 45 47 44 40 33 29 24 28 31 36 37 44 48 53 71 93 100 97 100 100 100 100 99 89 88 100 100 100 100 100 99 98 100
32 42 52 51 48 49 46 53 60 58 51 46 45 44 43 36 29 37 40 46 47 48 58 61 60 89 94 100 100 100 98 97 100 100 100 76 97 100 100 99 100 95 97
18 30 37 50 54 49 48 47 58 64 62 51 57 63 64 61 61 64 59 57 70 67 67 84 99 95 99 100 99 100 100 100 100 100 99 98 100 98 100 97 96 96 97
16 15 15 34 51 56 53 55 55 63 68 65 72 74 74 87 84 89 74 82 73 87 93 99 100 98 100 99 100 100 100 99 99 100 98 98 98 96 99 97 96 96 95
19 31 48 29 32 56 64 65 67 76 84 86 93 100 92 94 82 75 96 93 97 99 100 100 100 100 100 99 98 99 99 98 97 97 95 97 96 95 95 95 95 95 94
37 50 63 74 84 69 88 97 92 90 98 100 99 100 99 96 100 100 100 100 99 100 100 99 98 98 99 98 98 96 95 96 96 95 96 95 95 96 94 94 94 93 92
65 67 62 57 75 75 77 89 99 100 100 100 100 100 100 98 100 99 100 99 98 99 98 98 97 95 96 97 96 96 94 95 96 95 94 95 95 95 95 93 85 70 40
87 78 71 65 69 88 83 81 76 79 95 97 99 99 99 100 98 99 99 97 97 95 96 95 96 97 96 94 96 96 95 95 97 94 97 95 95 94 81 38 10 6 5
98 93 81 67 91 100 100 99 95 91 89 96 95 99 91 96 93 95 97 96 94 96 96 95 96 95 95 95 94 95 96 95 93 94 91 80 41 13 6 5 5 5 6
100 91 88 84 94 96 99 97 99 93 95 94 96 98 100 91 98 94 97 97 94 92 92 93 94 95 95 94 93 93 92 93 84 50 12 6 5 5 6 6 6 6 7
91 91 93 93 93 94 96 94 96 96 94 95 96 97 95 93 92 95 96 96 95 94 95 96 96 95 94 94 91 79 43 10 6 6 6 6 6 7 7 8 9 10 12
87 92 92 91 93 93 94 94 95 96 96 96 95 94 93 95 95 95 96 97 97 97 96 96 90 61 30 9 6 6 6 6 7 7 7 7 8 9 9 11 13 14 16
90 92 93 96 100 97 95 94 93 93 94 97 96 96 96 93 91 84 69 51 31 20 8 7 6 6 6 6 7 7 8 7 7 8 8 9 10 12 14 15 15 16 18
90 83 80 77 72 67 61 54 46 38 31 23 17 12 9 9 8 8 7 7 7 7 7 7 8 8 8 8 8 8 8 8 9 10 12 13 14 15 15 16 17 20 24
13 10 10 9 9 9 9 9 9 9 8 8 8 7 7 7 7 6 7 7 7 8 8 8 8 8 9 9 8 8 9 10 12 14 15 16 16 16 17 21 23 26 34
9 8 8 8 8 7 7 7 6 6 6 6 7 7 8 9 9 9 9 9 9 9 10 10 10 10 10 10 10 10 12 14 16 16 17 17 18 21 24 26 30 42 49
7 7 7 7 7 8 8 9 9 10 10 10 10 10 10 10 11 11 11 11 12 12 12 13 13 12 12 12 12 14 17 18 19 19 20 23 25 27 28 33 44 52 54

GFSGL_700_rhum_084.txt.gz
RH
30 16 15 18 24 27 30 33 34 36 38 40 43 57 68 86 95 96 97 97 99 99 100 99 98 97 98 99 98 100 99 100 98 97 99 87 100 100 99 100 97 100 99
41 41 20 18 18 23 26 29 32 33 36 38 39 40 44 48 58 68 60 82 98 85 97 99 98 100 97 98 99 98 100 100 100 97 94 91 86 89 98 98 99 99 93
57 53 51 29 20 21 25 28 30 31 34 37 40 42 43 43 44 47 54 64 75 70 73 84 86 91 89 93 94 96 100 99 99 100 98 98 98 92 99 100 94 96 91
78 76 69 58 42 23 23 26 28 30 32 35 37 38 40 41 42 43 45 49 50 53 59 54 56 63 62 79 90 93 100 100 100 100 100 98 99 93 91 95 98 100 100
64 53 64 94 64 57 36 27 28 28 30 35 39 44 45 45 50 50 44 45 46 48 51 52 52 53 55 58 71 68 87 94 87 93 89 76 81 91 99 94 100 99 97
57 63 62 67 83 86 76 60 49 41 35 34 35 42 47 52 56 60 62 62 50 48 49 50 52 54 54 55 57 60 68 73 85 92 83 90 91 95 97 100 100 100 99
54 56 63 60 61 61 57 60 57 51 52 50 43 38 38 42 48 57 65 68 71 75 71 61 55 55 56 57 58 60 64 67 68 70 77 86 97 100 100 100 99 96 100
59 68 60 59 63 52 53 55 56 57 59 60 56 52 49 46 49 51 52 66 70 70 74 80 84 84 81 70 65 65 63 63 63 64 66 74 86 97 100 99 100 100 99
48 55 54 59 66 64 58 53 54 58 59 55 60 64 60 52 50 42 42 44 43 45 51 58 64 72 76 84 96 99 97 97 98 93 95 95 86 88 92 100 100 99 100
28 27 34 48 53 52 51 49 46 45 46 56 57 61 68 72 62 53 50 47 43 42 41 33 41 50 59 65 78 81 96 99 99 99 98 98 98 99 98 100 99 97 99
12 15 22 27 28 31 47 51 48 46 45 45 53 62 66 70 68 66 61 58 55 49 39 45 61 61 72 65 83 100 100 89 96 99 99 99 98 100 99 99 100 100 100
9 9 8 7 7 10 19 27 42 51 51 49 52 59 62 76 81 79 78 84 71 74 75 60 92 85 100 98 92 89 98 100 100 96 95 100 99 99 99 98 96 97 97
14 13 12 11 10 8 7 7 15 38 54 55 59 68 70 74 78 82 70 82 86 99 89 91 92 100 83 86 98 100 100 100 100 100 99 100 97 98 95 96 94 96 97
16 15 16 16 17 17 17 19 24 15 40 67 73 95 95 85 96 100 94 81 88 84 100 98 99 98 98 100 100 100 100 100 99 98 97 96 96 95 96 95 97 94 96
22 20 22 27 30 39 43 43 46 55 58 70 77 100 99 99 99 99 99 99 98 99 100 98 100 99 99 100 97 97 95 95 95 95 96 94 98 95 95 96 95 95 96
30 31 36 48 63 63 54 53 53 59 72 80 80 91 100 99 100 100 95 99 100 98 98 98 95 96 97 96 96 94 93 96 96 96 94 94 95 93 96 95 94 94 90
43 49 68 71 73 72 63 60 64 67 78 85 97 100 98 96 96 95 94 94 96 93 97 92 95 97 97 96 95 96 97 96 94 95 96 95 96 95 95 91 62 24 7
77 86 87 86 86 77 78 81 82 81 78 86 94 95 96 97 96 100 96 94 94 94 100 95 90 91 94 98 94 97 96 95 96 95 96 95 86 53 19 7 5 4 5
83 88 92 94 97 94 91 90 86 86 85 86 93 95 94 95 96 95 97 98 97 91 96 97 96 97 95 94 96 96 96 96 95 82 36 11 6 5 5 5 5 5 5
85 87 90 90 89 90 93 90 89 92 91 90 92 95 94 95 95 95 96 96 95 96 96 95 96 97 96 96 93 81 38 11 6 5 5 6 6 6 6 6 6 7 8
93 92 90 94 94 92 94 96 92 92 95 97 96 94 93 94 94 95 95 94 94 94 91 79 65 32 14 6 6 6 6 6 6 7 6 6 6 6 8 8 10 10 10
95 92 92 90 93 90 83 82 79 77 74 72 66 59 49 42 33 21 14 9 8 7 7 6 6 6 6 7 7 7 7 7 7 7 7 8 9 10 11 12 12 12 13
64 49 40 31 17 11 9 8 8 8 8 8 8 8 8 7 7 7 6 6 6 7 7 7 8 8 8 8 8 8 8 9 9 10 11 12 13 14 15 14 14 16 17
10 10 9 9 8 8 7 7 7 7 7 6 6 6 7 7 7 7 8 8 9 9 9 9 10 10 10 10 10 10 11 11 12 13 14 15 16 16 16 17 18 21 23
9 9 8 7 7 7 6 6 7 7 8 8 9 9 10 10 9 10 10 10 11 12 13 14 13 13 13 13 12 12 12 13 14 15 16 17 18 17 19 20 23 24 28
8 8 9 9 10 10 10 10 10 10 11 11 12 12 12 12 12 13 14 16 18 18 18 18 18 17 16 16 16 16 17 18 18 19 19 19 19 21 24 27 27 28 39

GFSGL_700_rhum_087.txt.gz
RH
38 30 15 18 24 27 29 32 35 37 42 48 59 75 88 97 97 96 96 95 90 85 92 94 93 98 98 98 99 99 100 100 99 96 93 84 90 83 90 99 100 98 98
57 50 44 21 18 23 26 29 32 35 38 39 42 45 49 60 76 87 100 100 99 91 94 96 92 93 98 100 100 100 100 99 100 99 85 95 100 98 99 100 99 95 92
71 63 58 53 32 21 22 26 30 31 33 37 39 40 42 46 48 50 54 67 72 76 83 92 98 100 96 99 100 100 100 100 100 100 96 99 98 96 100 100 100 100 100
80 71 53 52 55 55 36 25 26 30 32 32 34 36 38 40 42 44 47 50 53 56 60 64 70 67 61 73 87 91 99 100 98 99 97 91 97 98 98 94 89 93 97
65 61 62 68 62 60 56 44 34 29 31 33 34 35 36 37 38 40 41 42 44 46 48 48 53 57 60 68 83 70 81 89 96 100 99 100 99 100 98 93 85 85 89
64 67 64 63 66 73 73 61 54 42 34 37 33 36 36 35 38 41 43 44 45 46 48 46 47 48 50 54 60 61 75 71 69 81 86 96 88 81 89 87 82 86 85
51 53 54 54 59 57 62 58 62 68 69 60 58 60 55 52 48 47 49 54 53 53 55 57 59 59 54 51 52 54 57 61 61 62 65 66 69 70 76 83 75 78 86
54 55 58 60 60 59 55 56 53 57 59 62 66 64 63 62 62 64 68 70 74 70 65 65 68 70 72 74 67 58 56 58 61 62 64 64 64 65 64 68 70 83 75
33 37 48 51 51 55 59 60 56 50 52 55 58 59 63 66 73 76 79 82 86 84 78 68 61 57 64 74 78 81 79 75 69 66 71 80 85 86 89 96 92 86 98
30 30 32 32 34 42 46 49 48 46 46 46 48 48 49 57 64 64 71 79 79 87 90 93 92 64 52 50 69 77 74 93 100 98 96 96 96 98 100 100 95 95 99
13 14 16 16 17 18 21 24 27 32 38 41 46 49 50 48 49 56 69 80 88 91 92 87 86 92 86 65 71 84 75 99 97 100 92 97 91 100 100 96 100 100 100
11 10 9 9 7 6 6 6 6 6 6 6 10 23 41 48 49 50 59 72 84 98 98 97 85 91 89 98 100 91 94 98 74 98 97 97 91 93 100 100 100 100 99
13 13 13 11 11 9 8 7 8 8 9 10 11 9 6 18 48 59 61 70 82 99 100 97 99 92 90 100 100 100 100 100 100 100 99 99 99 100 99 100 98 97 96
15 14 13 14 15 13 12 15 22 30 34 35 37 39 39 28 22 77 83 98 99 100 99 100 97 99 100 100 99 100 100 98 98 98 96 97 97 95 93 94 95 95 95
22 20 18 16 16 18 24 31 43 52 51 47 49 51 60 63 60 62 72 100 96 98 100 99 99 99 99 96 99 100 100 96 97 97 96 94 96 97 96 95 97 97 94
29 29 27 24 27 35 48 57 60 58 54 54 56 62 67 79 89 93 97 98 95 97 96 97 98 95 95 92 89 97 95 96 95 95 96 95 98 96 96 95 96 96 96
40 43 46 49 57 64 69 73 74 70 66 63 62 62 64 72 78 82 86 89 95 95 95 92 96 95 92 93 96 92 97 94 95 97 96 95 96 98 96 93 94 95 88
57 59 65 70 75 80 84 85 83 81 78 76 75 76 76 78 81 86 88 88 92 94 96 96 94 94 96 96 95 95 94 95 96 96 96 97 96 94 89 72 23 5 4
70 70 74 78 80 82 83 83 82 82 81 80 78 79 81 88 88 92 95 94 95 95 96 96 95 94 93 94 94 95 96 96 95 93 93 72 25 6 5 5 5 5 5
79 82 85 86 88 89 89 88 86 84 83 82 82 83 86 90 91 93 96 96 95 95 96 96 95 95 94 95 94 85 70 36 14 6 5 5 5 5 5 5 6 6 6
88 88 90 91 92 92 90 90 88 88 87 87 86 85 85 85 87 85 84 79 66 46 25 12 7 6 6 6 6 5 6 6 6 6 6 6 6 6 6 7 8 8 9
88 89 88 85 80 70 56 44 30 21 15 10 9 8 8 8 8 8 7 7 7 7 6 6 6 6 6 6 6 7 6 6 7 7 7 7 8 8 8 9 10 11 11
69 49 30 18 12 10 9 8 8 8 8 7 7 7 7 6 6 6 6 6 7 7 8 8 8 8 8 8 8 9 9 9 9 9 9 9 9 10 11 12 12 12 12
15 11 9 8 8 8 7 7 7 6 6 6 6 7 7 8 8 8 9 9 9 9 9 10 10 11 12 12 12 12 11 11 11 11 11 12 13 14 15 15 15 15 19
12 9 8 8 8 7 7 8 8 9 9 9 9 9 9 10 11 11 12 12 13 14 14 15 15 15 15 15 15 14 14 14 14 14 14 15 16 16 17 18 19 21 23
9 9 9 9 9 9 10 10 10 11 11 11 12 12 12 12 13 14 15 16 18 19 19 20 21 21 20 20 19 18 18 17 17 17 17 17 18 19 21 23 26 28 28